| time (UTC) | temp F | wind direction | speed MPH | gust MPH | rain 1hr in | rain 24hr in | rain mn in | humidity % | barometer mb |
| 20260507141903 | 69 | 120 | 3.0 | 5.0 | 0.04 | 0.69 | 0.69 | 93 | 1013.3 |
| 20260507141804 | 69 | 134 | 2.0 | 5.0 | 0.04 | 0.69 | 0.69 | 93 | 1013.2 |
| 20260507141703 | 69 | 104 | 3.0 | 5.0 | 0.04 | 0.69 | 0.69 | 93 | 1013.1 |
| 20260507141602 | 69 | 107 | 2.0 | 5.0 | 0.05 | 0.69 | 0.69 | 93 | 1012.9 |
| 20260507141403 | 69 | 360 | 3.0 | 5.0 | 0.05 | 0.69 | 0.69 | 93 | 1012.6 |
| 20260507141304 | 69 | 95 | 3.0 | 5.0 | 0.05 | 0.69 | 0.69 | 93 | 1012.5 |
| 20260507141102 | 69 | 98 | 4.0 | 5.0 | 0.06 | 0.69 | 0.69 | 93 | 1012.8 |
| 20260507141007 | 69 | 123 | 3.0 | 5.0 | 0.06 | 0.69 | 0.69 | 93 | 1012.8 |
| 20260507140902 | 69 | 124 | 3.0 | 5.0 | 0.07 | 0.69 | 0.69 | 93 | 1013.1 |
| 20260507140801 | 69 | 120 | 3.0 | 5.0 | 0.08 | 0.69 | 0.69 | 93 | 1013.2 |
| 20260507140703 | 69 | 127 | 1.0 | 5.0 | 0.08 | 0.69 | 0.69 | 93 | 1013.2 |
| 20260507140602 | 69 | 113 | 3.0 | 5.0 | 0.08 | 0.69 | 0.69 | 93 | 1013.1 |
| 20260507140506 | 69 | 137 | 3.0 | 5.0 | 0.08 | 0.69 | 0.69 | 92 | 1013.1 |
| 20260507140403 | 69 | 127 | 4.0 | 5.0 | 0.09 | 0.69 | 0.69 | 92 | 1013.1 |
| 20260507140302 | 69 | 124 | 4.0 | 5.0 | 0.09 | 0.69 | 0.69 | 92 | 1013.1 |
| 20260507140201 | 69 | 120 | 3.0 | 5.0 | 0.09 | 0.69 | 0.69 | 92 | 1013.2 |
| 20260507135901 | 69 | 104 | 3.0 | 4.0 | 0.10 | 0.69 | 0.69 | 92 | 1013.2 |
| 20260507135803 | 69 | 64 | 2.0 | 4.0 | 0.09 | 0.68 | 0.68 | 92 | 1013.2 |
| 20260507135702 | 68 | 109 | 0.0 | 4.0 | 0.10 | 0.68 | 0.68 | 92 | 1013.1 |
| 20260507135601 | 69 | 94 | 2.0 | 4.0 | 0.10 | 0.68 | 0.68 | 92 | 1013.0 |
| 20260507135506 | 69 | 107 | 3.0 | 4.0 | 0.10 | 0.68 | 0.68 | 92 | 1013.0 |
| 20260507135402 | 69 | 98 | 3.0 | 4.0 | 0.10 | 0.68 | 0.68 | 92 | 1013.2 |
| 20260507135305 | 69 | 121 | 3.0 | 5.0 | 0.10 | 0.68 | 0.68 | 92 | 1013.2 |
| 20260507135102 | 69 | 93 | 2.0 | 5.0 | 0.13 | 0.68 | 0.68 | 92 | 1013.2 |
| 20260507134802 | 69 | 91 | 3.0 | 7.0 | 0.17 | 0.68 | 0.68 | 92 | 1013.4 |
| 20260507134702 | 69 | 108 | 2.0 | 7.0 | 0.19 | 0.68 | 0.68 | 92 | 1013.4 |
| 20260507134506 | 69 | 106 | 3.0 | 7.0 | 0.21 | 0.68 | 0.68 | 92 | 1013.4 |
| 20260507134402 | 69 | 89 | 4.0 | 7.0 | 0.27 | 0.67 | 0.67 | 92 | 1013.5 |
| 20260507134302 | 69 | 109 | 4.0 | 7.0 | 0.27 | 0.67 | 0.67 | 92 | 1013.5 |
| 20260507134202 | 69 | 111 | 3.0 | 7.0 | 0.30 | 0.67 | 0.67 | 92 | 1013.5 |
| 20260507134102 | 69 | 111 | 3.0 | 6.0 | 0.35 | 0.67 | 0.67 | 92 | 1013.5 |
| 20260507134006 | 69 | 137 | 2.0 | 7.0 | 0.35 | 0.67 | 0.67 | 92 | 1013.5 |
| 20260507133901 | 69 | 136 | 1.0 | 7.0 | 0.43 | 0.67 | 0.67 | 92 | 1013.3 |
| 20260507133703 | 69 | 45 | 0.0 | 7.0 | 0.43 | 0.67 | 0.67 | 92 | 1013.3 |
| 20260507133603 | 69 | 86 | 2.0 | 7.0 | 0.44 | 0.67 | 0.67 | 92 | 1013.4 |
| 20260507133505 | 69 | 360 | 2.0 | 7.0 | 0.44 | 0.66 | 0.66 | 92 | 1013.4 |
| 20260507133402 | 69 | 81 | 2.0 | 7.0 | 0.45 | 0.66 | 0.66 | 91 | 1013.3 |
| 20260507133302 | 69 | 90 | 3.0 | 7.0 | 0.44 | 0.65 | 0.65 | 91 | 1013.2 |
| 20260507133203 | 69 | 105 | 4.0 | 7.0 | 0.44 | 0.65 | 0.65 | 91 | 1013.2 |
| 20260507133007 | 69 | 101 | 0.0 | 4.0 | 0.47 | 0.65 | 0.65 | 91 | 1013.5 |
| 20260507132902 | 69 | 94 | 3.0 | 5.0 | 0.49 | 0.65 | 0.65 | 91 | 1013.5 |
| 20260507132803 | 69 | 94 | 3.0 | 5.0 | 0.49 | 0.65 | 0.65 | 91 | 1013.7 |
| 20260507132703 | 69 | 98 | 0.0 | 5.0 | 0.52 | 0.65 | 0.65 | 91 | 1013.5 |
| 20260507132601 | 69 | 66 | 1.0 | 5.0 | 0.57 | 0.65 | 0.65 | 91 | 1013.5 |
| 20260507132506 | 69 | 41 | 0.0 | 5.0 | 0.57 | 0.65 | 0.65 | 91 | 1013.5 |
| 20260507132401 | 69 | 18 | 0.0 | 5.0 | 0.58 | 0.65 | 0.65 | 91 | 1013.3 |
| 20260507132306 | 69 | 20 | 1.0 | 5.0 | 0.58 | 0.65 | 0.65 | 91 | 1013.3 |
| 20260507132201 | 69 | 89 | 0.0 | 5.0 | 0.58 | 0.65 | 0.65 | 91 | 1013.2 |
| 20260507132102 | 69 | 79 | 1.0 | 5.0 | 0.58 | 0.65 | 0.65 | 91 | 1013.3 |
| 20260507131702 | 69 | 87 | 3.0 | 4.0 | 0.57 | 0.64 | 0.64 | 91 | 1013.4 |
| 20260507131506 | 69 | 108 | 2.0 | 5.0 | 0.57 | 0.64 | 0.64 | 90 | 1013.6 |
| 20260507131301 | 69 | 94 | 3.0 | 5.0 | 0.57 | 0.64 | 0.64 | 90 | 1013.7 |
| 20260507131203 | 69 | 86 | 2.0 | 5.0 | 0.56 | 0.63 | 0.63 | 90 | 1013.8 |
| 20260507131102 | 69 | 107 | 0.0 | 5.0 | 0.57 | 0.63 | 0.63 | 90 | 1013.8 |
| 20260507131006 | 69 | 65 | 2.0 | 5.0 | 0.56 | 0.62 | 0.62 | 90 | 1013.8 |
| 20260507130902 | 69 | 60 | 0.0 | 5.0 | 0.56 | 0.62 | 0.62 | 90 | 1013.7 |
| 20260507130802 | 69 | 51 | 0.0 | 5.0 | 0.55 | 0.61 | 0.61 | 90 | 1013.6 |
| 20260507130702 | 69 | 63 | 0.0 | 5.0 | 0.55 | 0.61 | 0.61 | 90 | 1013.6 |
| 20260507130602 | 69 | 73 | 3.0 | 5.0 | 0.56 | 0.61 | 0.61 | 90 | 1013.6 |
| 20260507130402 | 69 | 113 | 0.0 | 5.0 | 0.58 | 0.60 | 0.60 | 90 | 1013.5 |
| 20260507130302 | 69 | 94 | 1.0 | 5.0 | 0.59 | 0.60 | 0.60 | 90 | 1013.3 |
| 20260507130203 | 69 | 71 | 3.0 | 5.0 | 0.59 | 0.60 | 0.60 | 90 | 1013.3 |
| 20260507130007 | 69 | 55 | 3.0 | 10.0 | 0.58 | 0.59 | 0.59 | 89 | 1013.4 |
| 20260507125903 | 69 | 56 | 3.0 | 10.0 | 0.59 | 0.59 | 0.59 | 89 | 1013.4 |
| 20260507125802 | 69 | 60 | 2.0 | 10.0 | 0.59 | 0.59 | 0.59 | 89 | 1013.5 |
| 20260507125602 | 69 | 47 | 0.0 | 10.0 | 0.58 | 0.58 | 0.58 | 89 | 1013.5 |
| 20260507125506 | 69 | 55 | 3.0 | 10.0 | 0.58 | 0.58 | 0.58 | 89 | 1013.5 |
| 20260507125403 | 69 | 24 | 2.0 | 10.0 | 0.58 | 0.58 | 0.58 | 89 | 1013.6 |
| 20260507125306 | 69 | 51 | 2.0 | 10.0 | 0.58 | 0.58 | 0.58 | 89 | 1013.6 |
| 20260507125201 | 70 | 124 | 3.0 | 10.0 | 0.56 | 0.56 | 0.56 | 89 | 1013.7 |
| 20260507125103 | 70 | 228 | 2.0 | 10.0 | 0.55 | 0.55 | 0.55 | 89 | 1013.7 |
| 20260507125007 | 71 | 93 | 5.0 | 9.0 | 0.54 | 0.54 | 0.54 | 89 | 1013.9 |
| 20260507124803 | 71 | 125 | 5.0 | 9.0 | 0.51 | 0.51 | 0.51 | 89 | 1014.1 |
| 20260507124703 | 71 | 96 | 1.0 | 9.0 | 0.49 | 0.49 | 0.49 | 90 | 1014.1 |
| 20260507124602 | 72 | 105 | 3.0 | 9.0 | 0.46 | 0.46 | 0.46 | 89 | 1014.1 |
| 20260507124506 | 72 | 67 | 2.0 | 9.0 | 0.45 | 0.45 | 0.45 | 90 | 1014.1 |
| 20260507124403 | 72 | 62 | 0.0 | 9.0 | 0.41 | 0.41 | 0.41 | 90 | 1014.1 |
| 20260507124304 | 72 | 50 | 5.0 | 9.0 | 0.40 | 0.40 | 0.40 | 90 | 1014.0 |
| 20260507124201 | 72 | 186 | 1.0 | 8.0 | 0.37 | 0.37 | 0.37 | 90 | 1014.6 |
| 20260507123903 | 73 | 244 | 2.0 | 8.0 | 0.24 | 0.24 | 0.24 | 89 | 1014.3 |
| 20260507123802 | 73 | 275 | 8.0 | 8.0 | 0.24 | 0.24 | 0.24 | 90 | 1014.1 |
| 20260507123702 | 73 | 309 | 5.0 | 5.0 | 0.23 | 0.23 | 0.23 | 90 | 1014.0 |
| 20260507123602 | 73 | 333 | 2.0 | 5.0 | 0.22 | 0.22 | 0.22 | 90 | 1013.9 |
| 20260507123506 | 73 | 317 | 2.0 | 5.0 | 0.22 | 0.22 | 0.22 | 90 | 1013.9 |
| 20260507123401 | 73 | 8 | 2.0 | 5.0 | 0.21 | 0.21 | 0.21 | 90 | 1013.8 |
| 20260507123301 | 73 | 81 | 0.0 | 5.0 | 0.21 | 0.21 | 0.21 | 90 | 1013.9 |
| 20260507123202 | 73 | 72 | 1.0 | 5.0 | 0.20 | 0.20 | 0.20 | 90 | 1013.9 |
| 20260507123101 | 73 | 359 | 0.0 | 5.0 | 0.19 | 0.19 | 0.19 | 90 | 1014.1 |
| 20260507123007 | 73 | 8 | 1.0 | 5.0 | 0.19 | 0.19 | 0.19 | 90 | 1014.1 |
| 20260507122902 | 73 | 359 | 3.0 | 5.0 | 0.16 | 0.16 | 0.16 | 89 | 1014.2 |
| 20260507122802 | 73 | 3 | 3.0 | 5.0 | 0.13 | 0.13 | 0.13 | 89 | 1014.2 |
| 20260507122601 | 73 | 352 | 2.0 | 4.0 | 0.08 | 0.08 | 0.08 | 89 | 1014.2 |
| 20260507122505 | 73 | 323 | 2.0 | 4.0 | 0.07 | 0.07 | 0.07 | 89 | 1014.2 |
| 20260507122402 | 73 | 326 | 3.0 | 4.0 | 0.07 | 0.07 | 0.07 | 89 | 1014.0 |
| 20260507122306 | 73 | 340 | 3.0 | 3.0 | 0.07 | 0.07 | 0.07 | 89 | 1014.0 |
| 20260507122202 | 73 | 1 | 2.0 | 3.0 | 0.07 | 0.07 | 0.07 | 89 | 1013.9 |
| 20260507122103 | 73 | 32 | 0.0 | 3.0 | 0.07 | 0.07 | 0.07 | 89 | 1013.9 |
| 20260507122006 | 73 | 32 | 0.0 | 3.0 | 0.07 | 0.07 | 0.07 | 89 | 1013.9 |
| 20260507121902 | 73 | 32 | 0.0 | 3.0 | 0.07 | 0.07 | 0.07 | 89 | 1013.9 |
| 20260507121802 | 73 | 23 | 0.0 | 3.0 | 0.07 | 0.07 | 0.07 | 89 | 1013.8 |
| 20260507121703 | 73 | 23 | 1.0 | 3.0 | 0.07 | 0.07 | 0.07 | 88 | 1013.8 |
| 20260507121602 | 74 | 331 | 2.0 | 3.0 | 0.07 | 0.07 | 0.07 | 88 | 1013.7 |
| 20260507121505 | 73 | 46 | 1.0 | 3.0 | 0.07 | 0.07 | 0.07 | 89 | 1013.7 |
| 20260507121402 | 74 | 41 | 0.0 | 3.0 | 0.07 | 0.07 | 0.07 | 88 | 1013.7 |
| 20260507121301 | 74 | 46 | 2.0 | 3.0 | 0.07 | 0.07 | 0.07 | 88 | 1013.8 |
| 20260507121203 | 74 | 27 | 0.0 | 3.0 | 0.07 | 0.07 | 0.07 | 88 | 1013.9 |
| 20260507121102 | 74 | 13 | 0.0 | 3.0 | 0.06 | 0.06 | 0.06 | 88 | 1014.0 |
| 20260507121009 | 74 | 13 | 0.0 | 3.0 | 0.06 | 0.06 | 0.06 | 88 | 1014.0 |
| 20260507120901 | 74 | 39 | 0.0 | 3.0 | 0.06 | 0.06 | 0.06 | 88 | 1013.8 |
| 20260507120802 | 74 | 6 | 0.0 | 3.0 | 0.06 | 0.06 | 0.06 | 88 | 1013.8 |
| 20260507120701 | 74 | 358 | 0.0 | 3.0 | 0.06 | 0.06 | 0.06 | 88 | 1013.8 |
| 20260507120602 | 74 | 13 | 0.0 | 3.0 | 0.05 | 0.05 | 0.05 | 87 | 1013.7 |
| 20260507120506 | 74 | 359 | 0.0 | 3.0 | 0.03 | 0.03 | 0.03 | 87 | 1013.7 |
| 20260507120404 | 74 | 345 | 0.0 | 3.0 | 0.02 | 0.02 | 0.02 | 87 | 1013.6 |
| 20260507120301 | 74 | 338 | 1.0 | 6.0 | 0.01 | 0.01 | 0.01 | 87 | 1013.5 |
| 20260507120202 | 74 | 314 | 0.0 | 6.0 | 0.01 | 0.01 | 0.01 | 87 | 1013.4 |
| 20260507120008 | 74 | 323 | 0.0 | 6.0 | 0.01 | 0.01 | 0.01 | 87 | 1013.3 |
| 20260507115901 | 74 | 330 | 0.0 | 6.0 | 0.00 | 0.00 | 0.00 | 87 | 1013.2 |
| 20260507115802 | 74 | 314 | 0.0 | 7.0 | 0.00 | 0.00 | 0.00 | 87 | 1013.2 |
| 20260507115701 | 74 | 51 | 2.0 | 7.0 | 0.00 | 0.00 | 0.00 | 87 | 1013.2 |
| 20260507115601 | 74 | 347 | 0.0 | 7.0 | 0.00 | 0.00 | 0.00 | 87 | 1013.1 |
| 20260507115301 | 74 | 309 | 1.0 | 7.0 | 0.00 | 0.00 | 0.00 | 87 | 1013.0 |
| 20260507115201 | 74 | 316 | 2.0 | 7.0 | 0.00 | 0.00 | 0.00 | 87 | 1012.9 |
| 20260507115100 | 74 | 244 | 0.0 | 7.0 | 0.00 | 0.00 | 0.00 | 87 | 1012.9 |
| 20260507115006 | 74 | 305 | 0.0 | 7.0 | 0.00 | 0.00 | 0.00 | 87 | 1012.9 |
| 20260507114901 | 74 | 20 | 3.0 | 7.0 | 0.00 | 0.00 | 0.00 | 87 | 1012.9 |
| 20260507114801 | 74 | 335 | 3.0 | 5.0 | 0.00 | 0.00 | 0.00 | 87 | 1013.0 |
| 20260507114700 | 74 | 342 | 2.0 | 5.0 | 0.00 | 0.00 | 0.00 | 87 | 1012.7 |
| 20260507114505 | 74 | 333 | 1.0 | 5.0 | 0.00 | 0.00 | 0.00 | 87 | 1012.7 |
| 20260507114402 | 74 | 10 | 0.0 | 5.0 | 0.00 | 0.00 | 0.00 | 87 | 1012.7 |
| 20260507114301 | 74 | 300 | 0.0 | 5.0 | 0.00 | 0.00 | 0.00 | 87 | 1012.7 |
| 20260507114202 | 74 | 1 | 2.0 | 3.0 | 0.00 | 0.00 | 0.00 | 87 | 1012.5 |
| 20260507114100 | 74 | 264 | 0.0 | 3.0 | 0.00 | 0.00 | 0.00 | 87 | 1012.6 |
| 20260507114006 | 74 | 335 | 2.0 | 3.0 | 0.00 | 0.00 | 0.00 | 87 | 1012.6 |
| 20260507113901 | 74 | 330 | 0.0 | 3.0 | 0.00 | 0.00 | 0.00 | 87 | 1012.5 |
| 20260507113800 | 74 | 217 | 2.0 | 3.0 | 0.00 | 0.00 | 0.00 | 87 | 1012.4 |
| 20260507113505 | 74 | 123 | 0.0 | 3.0 | 0.00 | 0.00 | 0.00 | 87 | 1012.5 |
| 20260507113401 | 74 | 29 | 2.0 | 3.0 | 0.00 | 0.00 | 0.00 | 87 | 1012.7 |
| 20260507113301 | 74 | 241 | 0.0 | 1.0 | 0.00 | 0.00 | 0.00 | 87 | 1012.8 |
| 20260507113201 | 74 | 241 | 0.0 | 1.0 | 0.00 | 0.00 | 0.00 | 87 | 1012.6 |
| 20260507113006 | 74 | 319 | 0.0 | 1.0 | 0.00 | 0.00 | 0.00 | 87 | 1012.6 |
| 20260507112901 | 74 | 319 | 0.0 | 1.0 | 0.00 | 0.00 | 0.00 | 87 | 1012.4 |
| 20260507112801 | 74 | 319 | 0.0 | 4.0 | 0.00 | 0.00 | 0.00 | 87 | 1012.4 |
| 20260507112701 | 74 | 309 | 0.0 | 4.0 | 0.00 | 0.00 | 0.00 | 87 | 1012.3 |
| 20260507112601 | 74 | 309 | 0.0 | 4.0 | 0.00 | 0.00 | 0.00 | 87 | 1012.2 |
| 20260507112506 | 74 | 244 | 0.0 | 4.0 | 0.00 | 0.00 | 0.00 | 87 | 1012.2 |
| 20260507112401 | 74 | 244 | 0.0 | 4.0 | 0.00 | 0.00 | 0.00 | 87 | 1012.1 |
| 20260507112300 | 74 | 244 | 0.0 | 4.0 | 0.00 | 0.00 | 0.00 | 87 | 1012.0 |
| 20260507112202 | 74 | 342 | 0.0 | 4.0 | 0.00 | 0.00 | 0.00 | 87 | 1011.9 |
| 20260507112102 | 74 | 213 | 0.0 | 4.0 | 0.00 | 0.00 | 0.00 | 87 | 1012.0 |
| 20260507112005 | 74 | 272 | 0.0 | 4.0 | 0.00 | 0.00 | 0.00 | 87 | 1012.0 |
| 20260507111901 | 74 | 146 | 0.0 | 3.0 | 0.00 | 0.00 | 0.00 | 87 | 1012.0 |
| 20260507111802 | 74 | 146 | 0.0 | 3.0 | 0.00 | 0.00 | 0.00 | 87 | 1011.9 |
| 20260507111701 | 74 | 146 | 0.0 | 3.0 | 0.00 | 0.00 | 0.00 | 87 | 1011.9 |
| 20260507111600 | 74 | 120 | 0.0 | 3.0 | 0.00 | 0.00 | 0.00 | 87 | 1012.0 |
| 20260507111401 | 74 | 342 | 0.0 | 3.0 | 0.00 | 0.00 | 0.00 | 87 | 1012.0 |
| 20260507111301 | 74 | 125 | 0.0 | 3.0 | 0.00 | 0.00 | 0.00 | 87 | 1012.0 |
| 20260507111200 | 74 | 344 | 0.0 | 3.0 | 0.00 | 0.00 | 0.00 | 87 | 1012.1 |
| 20260507111102 | 74 | 326 | 0.0 | 3.0 | 0.00 | 0.00 | 0.00 | 87 | 1012.1 |
| 20260507111006 | 74 | 351 | 3.0 | 3.0 | 0.00 | 0.00 | 0.00 | 87 | 1012.1 |
| 20260507110900 | 74 | 278 | 0.0 | 2.0 | 0.00 | 0.00 | 0.00 | 87 | 1012.0 |
| 20260507110700 | 74 | 242 | 0.0 | 2.0 | 0.00 | 0.00 | 0.00 | 87 | 1012.0 |
| 20260507110602 | 74 | 297 | 0.0 | 2.0 | 0.00 | 0.00 | 0.00 | 87 | 1012.0 |
| 20260507110505 | 74 | 330 | 0.0 | 2.0 | 0.00 | 0.00 | 0.00 | 87 | 1012.0 |
| 20260507110302 | 74 | 321 | 0.0 | 2.0 | 0.00 | 0.00 | 0.00 | 87 | 1011.9 |
| 20260507110200 | 74 | 321 | 0.0 | 2.0 | 0.00 | 0.00 | 0.00 | 87 | 1011.8 |
| 20260507110007 | 74 | 360 | 0.0 | 2.0 | 0.00 | 0.00 | 0.00 | 88 | 1011.8 |
| 20260507105903 | 74 | 286 | 1.0 | 2.0 | 0.00 | 0.00 | 0.00 | 87 | 1011.9 |
| 20260507105802 | 74 | 333 | 0.0 | 2.0 | 0.00 | 0.00 | 0.00 | 87 | 1011.8 |
| 20260507105703 | 74 | 51 | 0.0 | 2.0 | 0.00 | 0.00 | 0.00 | 88 | 1011.8 |
| 20260507105601 | 74 | 51 | 0.0 | 2.0 | 0.00 | 0.00 | 0.00 | 88 | 1011.7 |
| 20260507105506 | 74 | 10 | 0.0 | 2.0 | 0.00 | 0.00 | 0.00 | 88 | 1011.7 |
| 20260507105402 | 74 | 11 | 0.0 | 2.0 | 0.00 | 0.00 | 0.00 | 88 | 1011.8 |
| 20260507105306 | 74 | 11 | 0.0 | 3.0 | 0.00 | 0.00 | 0.00 | 88 | 1011.8 |
| 20260507105201 | 74 | 342 | 0.0 | 3.0 | 0.00 | 0.00 | 0.00 | 88 | 1011.8 |
| 20260507105102 | 74 | 285 | 0.0 | 3.0 | 0.00 | 0.00 | 0.00 | 88 | 1011.8 |
| 20260507105006 | 74 | 340 | 0.0 | 3.0 | 0.00 | 0.00 | 0.00 | 88 | 1011.9 |
| 20260507104902 | 74 | 123 | 0.0 | 3.0 | 0.00 | 0.00 | 0.00 | 88 | 1011.9 |
| 20260507104801 | 74 | 123 | 0.0 | 3.0 | 0.00 | 0.00 | 0.00 | 88 | 1012.0 |
| 20260507104702 | 74 | 20 | 0.0 | 3.0 | 0.00 | 0.00 | 0.00 | 88 | 1011.9 |
| 20260507104602 | 74 | 20 | 0.0 | 3.0 | 0.00 | 0.00 | 0.00 | 88 | 1011.9 |
| 20260507104507 | 74 | 132 | 0.0 | 3.0 | 0.00 | 0.00 | 0.00 | 88 | 1011.9 |
| 20260507104402 | 74 | 50 | 3.0 | 3.0 | 0.00 | 0.00 | 0.00 | 88 | 1011.9 |
| 20260507104301 | 74 | 13 | 0.0 | 2.0 | 0.00 | 0.00 | 0.00 | 88 | 1012.0 |
| 20260507104202 | 74 | 24 | 1.0 | 2.0 | 0.00 | 0.00 | 0.00 | 88 | 1012.0 |
| 20260507104102 | 74 | 356 | 0.0 | 2.0 | 0.00 | 0.00 | 0.00 | 88 | 1012.0 |
| 20260507104006 | 73 | 356 | 0.0 | 2.0 | 0.00 | 0.00 | 0.00 | 88 | 1012.0 |
| 20260507103902 | 74 | 356 | 0.0 | 2.0 | 0.00 | 0.00 | 0.00 | 88 | 1011.9 |
| 20260507103701 | 73 | 316 | 0.0 | 2.0 | 0.00 | 0.00 | 0.00 | 88 | 1012.0 |
| 20260507103506 | 73 | 316 | 0.0 | 4.0 | 0.00 | 0.00 | 0.00 | 88 | 1011.9 |
| 20260507103401 | 73 | 66 | 2.0 | 4.0 | 0.00 | 0.00 | 0.00 | 88 | 1011.9 |
| 20260507103302 | 73 | 293 | 0.0 | 4.0 | 0.00 | 0.00 | 0.00 | 88 | 1012.0 |
| 20260507103203 | 73 | 293 | 0.0 | 4.0 | 0.00 | 0.00 | 0.00 | 88 | 1012.0 |
| 20260507103103 | 73 | 293 | 0.0 | 4.0 | 0.00 | 0.00 | 0.00 | 88 | 1012.0 |
| 20260507103006 | 73 | 27 | 0.0 | 4.0 | 0.00 | 0.00 | 0.00 | 88 | 1012.0 |
| 20260507102903 | 73 | 27 | 0.0 | 4.0 | 0.00 | 0.00 | 0.00 | 88 | 1012.0 |
| 20260507102702 | 73 | 324 | 2.0 | 4.0 | 0.00 | 0.00 | 0.00 | 88 | 1011.8 |
| 20260507102601 | 73 | 41 | 0.0 | 4.0 | 0.00 | 0.00 | 0.00 | 88 | 1011.8 |
| 20260507102506 | 73 | 23 | 2.0 | 4.0 | 0.00 | 0.00 | 0.00 | 88 | 1011.8 |
| 20260507102401 | 73 | 43 | 0.0 | 4.0 | 0.00 | 0.00 | 0.00 | 88 | 1011.7 |
| 20260507102302 | 73 | 338 | 2.0 | 5.0 | 0.00 | 0.00 | 0.00 | 88 | 1011.6 |
| 20260507102202 | 73 | 26 | 0.0 | 5.0 | 0.00 | 0.00 | 0.00 | 88 | 1011.6 |
| 20260507102101 | 73 | 26 | 0.0 | 5.0 | 0.00 | 0.00 | 0.00 | 88 | 1011.6 |
| 20260507102007 | 73 | 15 | 2.0 | 5.0 | 0.00 | 0.00 | 0.00 | 88 | 1011.6 |
| 20260507101902 | 73 | 105 | 0.0 | 5.0 | 0.00 | 0.00 | 0.00 | 88 | 1011.6 |
| 20260507101803 | 73 | 360 | 0.0 | 5.0 | 0.00 | 0.00 | 0.00 | 88 | 1011.6 |
| 20260507101702 | 73 | 354 | 1.0 | 5.0 | 0.00 | 0.00 | 0.00 | 88 | 1011.7 |
| 20260507101602 | 73 | 127 | 0.0 | 5.0 | 0.00 | 0.00 | 0.00 | 88 | 1011.6 |
| 20260507101302 | 73 | 116 | 1.0 | 3.0 | 0.00 | 0.00 | 0.00 | 88 | 1011.9 |
| 20260507101201 | 73 | 304 | 0.0 | 3.0 | 0.00 | 0.00 | 0.00 | 88 | 1011.9 |
| 20260507101102 | 73 | 304 | 0.0 | 3.0 | 0.00 | 0.00 | 0.00 | 88 | 1011.9 |
| 20260507100902 | 73 | 349 | 0.0 | 3.0 | 0.00 | 0.00 | 0.00 | 88 | 1011.7 |
| 20260507100802 | 73 | 103 | 0.0 | 3.0 | 0.00 | 0.00 | 0.00 | 88 | 1011.7 |
| 20260507100703 | 73 | 108 | 1.0 | 3.0 | 0.00 | 0.00 | 0.00 | 88 | 1011.8 |
| 20260507100506 | 73 | 335 | 0.0 | 3.0 | 0.00 | 0.00 | 0.00 | 88 | 1011.8 |
| 20260507100403 | 73 | 360 | 0.0 | 3.0 | 0.00 | 0.00 | 0.00 | 88 | 1011.8 |
| 20260507100302 | 73 | 63 | 0.0 | 3.0 | 0.00 | 0.00 | 0.00 | 89 | 1011.9 |
| 20260507100201 | 73 | 29 | 0.0 | 3.0 | 0.00 | 0.00 | 0.00 | 88 | 1011.9 |
| 20260507100007 | 73 | 295 | 0.0 | 3.0 | 0.00 | 0.00 | 0.00 | 89 | 1011.9 |
| 20260507095902 | 73 | 316 | 0.0 | 3.0 | 0.00 | 0.00 | 0.00 | 88 | 1011.8 |
| 20260507095801 | 73 | 316 | 0.0 | 3.0 | 0.00 | 0.00 | 0.00 | 88 | 1011.9 |
| 20260507095702 | 73 | 270 | 0.0 | 3.0 | 0.00 | 0.00 | 0.00 | 89 | 1012.0 |
| 20260507095601 | 73 | 349 | 2.0 | 3.0 | 0.00 | 0.00 | 0.00 | 89 | 1012.0 |
| 20260507095505 | 73 | 11 | 2.0 | 3.0 | 0.00 | 0.00 | 0.00 | 89 | 1012.0 |
| 20260507095401 | 73 | 321 | 2.0 | 3.0 | 0.00 | 0.00 | 0.00 | 89 | 1012.0 |
| 20260507095006 | 73 | 307 | 2.0 | 2.0 | 0.00 | 0.00 | 0.00 | 89 | 1011.8 |
| 20260507094902 | 73 | 337 | 0.0 | 2.0 | 0.00 | 0.00 | 0.00 | 88 | 1011.5 |
| 20260507094801 | 73 | 326 | 0.0 | 2.0 | 0.00 | 0.00 | 0.00 | 89 | 1011.5 |
| 20260507094702 | 73 | 330 | 2.0 | 2.0 | 0.00 | 0.00 | 0.00 | 88 | 1011.5 |
| 20260507094505 | 73 | 304 | 0.0 | 0.0 | 0.00 | 0.00 | 0.00 | 89 | 1011.4 |
| 20260507094402 | 73 | 304 | 0.0 | 1.0 | 0.00 | 0.00 | 0.00 | 88 | 1011.5 |
| 20260507094202 | 73 | 304 | 0.0 | 1.0 | 0.00 | 0.00 | 0.00 | 88 | 1011.4 |
| 20260507094104 | 73 | 335 | 0.0 | 1.0 | 0.00 | 0.00 | 0.00 | 88 | 1011.4 |
| 20260507094006 | 73 | 335 | 0.0 | 2.0 | 0.00 | 0.00 | 0.00 | 88 | 1011.4 |
| 20260507093903 | 73 | 294 | 0.0 | 2.0 | 0.00 | 0.00 | 0.00 | 88 | 1011.5 |
| 20260507093802 | 73 | 293 | 0.0 | 2.0 | 0.00 | 0.00 | 0.00 | 88 | 1011.4 |
| 20260507093703 | 73 | 294 | 0.0 | 2.0 | 0.00 | 0.00 | 0.00 | 88 | 1011.5 |
| 20260507093603 | 73 | 293 | 0.0 | 2.0 | 0.00 | 0.00 | 0.00 | 88 | 1011.4 |
| 20260507093505 | 73 | 295 | 0.0 | 2.0 | 0.00 | 0.00 | 0.00 | 88 | 1011.4 |
| 20260507093402 | 73 | 302 | 0.0 | 2.0 | 0.00 | 0.00 | 0.00 | 88 | 1011.4 |
| 20260507093201 | 73 | 302 | 0.0 | 2.0 | 0.00 | 0.00 | 0.00 | 88 | 1011.4 |
| 20260507093103 | 73 | 302 | 0.0 | 3.0 | 0.00 | 0.00 | 0.00 | 88 | 1011.4 |
| 20260507093006 | 73 | 347 | 0.0 | 3.0 | 0.00 | 0.00 | 0.00 | 88 | 1011.4 |
| 20260507092901 | 73 | 323 | 0.0 | 3.0 | 0.00 | 0.00 | 0.00 | 88 | 1011.1 |
| 20260507092801 | 73 | 314 | 0.0 | 3.0 | 0.00 | 0.00 | 0.00 | 88 | 1011.1 |
| 20260507092601 | 73 | 328 | 0.0 | 3.0 | 0.00 | 0.00 | 0.00 | 88 | 1011.0 |
| 20260507092301 | 73 | 153 | 0.0 | 3.0 | 0.00 | 0.00 | 0.00 | 88 | 1010.9 |
| 20260507092202 | 73 | 118 | 1.0 | 3.0 | 0.00 | 0.00 | 0.00 | 88 | 1010.9 |
| 20260507092006 | 73 | 120 | 0.0 | 3.0 | 0.00 | 0.00 | 0.00 | 88 | 1010.9 |
| 20260507091901 | 73 | 48 | 2.0 | 3.0 | 0.00 | 0.00 | 0.00 | 88 | 1010.7 |
| 20260507091702 | 73 | 319 | 0.0 | 3.0 | 0.00 | 0.00 | 0.00 | 88 | 1010.8 |
| 20260507091601 | 73 | 108 | 0.0 | 3.0 | 0.00 | 0.00 | 0.00 | 88 | 1010.8 |
| 20260507091506 | 73 | 129 | 0.0 | 3.0 | 0.00 | 0.00 | 0.00 | 88 | 1010.8 |
| 20260507091401 | 73 | 136 | 3.0 | 3.0 | 0.00 | 0.00 | 0.00 | 88 | 1010.9 |
| 20260507091303 | 73 | 108 | 0.0 | 2.0 | 0.00 | 0.00 | 0.00 | 88 | 1010.9 |
| 20260507091201 | 73 | 120 | 0.0 | 2.0 | 0.00 | 0.00 | 0.00 | 88 | 1010.9 |
| 20260507091102 | 73 | 91 | 0.0 | 2.0 | 0.00 | 0.00 | 0.00 | 88 | 1011.1 |
| 20260507091005 | 73 | 223 | 0.0 | 2.0 | 0.00 | 0.00 | 0.00 | 88 | 1011.1 |
| 20260507090902 | 73 | 223 | 0.0 | 2.0 | 0.00 | 0.00 | 0.00 | 88 | 1011.1 |
| 20260507090802 | 73 | 124 | 0.0 | 2.0 | 0.00 | 0.00 | 0.00 | 88 | 1011.1 |
| 20260507090701 | 73 | 124 | 0.0 | 2.0 | 0.00 | 0.00 | 0.00 | 88 | 1011.1 |
| 20260507090603 | 73 | 124 | 0.0 | 2.0 | 0.00 | 0.00 | 0.00 | 88 | 1011.1 |
| 20260507090505 | 73 | 124 | 0.0 | 2.0 | 0.00 | 0.00 | 0.00 | 88 | 1011.1 |
| 20260507090402 | 73 | 131 | 0.0 | 2.0 | 0.00 | 0.00 | 0.00 | 88 | 1011.1 |
| 20260507090303 | 73 | 149 | 0.0 | 2.0 | 0.00 | 0.00 | 0.00 | 88 | 1011.1 |
| 20260507090202 | 73 | 127 | 0.0 | 1.0 | 0.00 | 0.00 | 0.00 | 88 | 1011.4 |
| 20260507090010 | 73 | 295 | 0.0 | 1.0 | 0.00 | 0.00 | 0.00 | 87 | 1011.5 |
| 20260507085901 | 73 | 347 | 0.0 | 0.0 | 0.00 | 0.00 | 0.00 | 87 | 1011.6 |
| 20260507085702 | 73 | 347 | 0.0 | 2.0 | 0.00 | 0.00 | 0.00 | 87 | 1011.5 |
| 20260507085601 | 73 | 347 | 0.0 | 2.0 | 0.00 | 0.00 | 0.00 | 87 | 1011.4 |
| 20260507085505 | 73 | 347 | 0.0 | 2.0 | 0.00 | 0.00 | 0.00 | 87 | 1011.4 |
| 20260507085401 | 73 | 347 | 0.0 | 2.0 | 0.00 | 0.00 | 0.00 | 87 | 1011.6 |
| 20260507085301 | 73 | 347 | 0.0 | 2.0 | 0.00 | 0.00 | 0.00 | 87 | 1011.6 |
| 20260507085202 | 73 | 347 | 0.0 | 2.0 | 0.00 | 0.00 | 0.00 | 87 | 1011.5 |
| 20260507085100 | 73 | 347 | 0.0 | 2.0 | 0.00 | 0.00 | 0.00 | 87 | 1011.4 |
| 20260507085005 | 73 | 347 | 0.0 | 2.0 | 0.00 | 0.00 | 0.00 | 87 | 1011.4 |
| 20260507084902 | 73 | 330 | 0.0 | 2.0 | 0.00 | 0.00 | 0.00 | 87 | 1011.7 |
| 20260507084801 | 73 | 331 | 0.0 | 2.0 | 0.00 | 0.00 | 0.00 | 87 | 1011.7 |
| 20260507084701 | 73 | 319 | 0.0 | 1.0 | 0.00 | 0.00 | 0.00 | 87 | 1011.6 |
| 20260507084505 | 73 | 319 | 0.0 | 2.0 | 0.00 | 0.00 | 0.00 | 87 | 1011.7 |
| 20260507084401 | 73 | 139 | 0.0 | 2.0 | 0.00 | 0.00 | 0.00 | 87 | 1011.7 |
| 20260507084300 | 73 | 139 | 0.0 | 2.0 | 0.00 | 0.00 | 0.00 | 87 | 1011.7 |
| 20260507084201 | 73 | 321 | 0.0 | 2.0 | 0.00 | 0.00 | 0.00 | 87 | 1011.7 |
| 20260507084007 | 73 | 321 | 0.0 | 3.0 | 0.00 | 0.00 | 0.00 | 87 | 1011.9 |
| 20260507083900 | 73 | 321 | 0.0 | 3.0 | 0.00 | 0.00 | 0.00 | 87 | 1011.8 |
| 20260507083601 | 73 | 86 | 1.0 | 3.0 | 0.00 | 0.00 | 0.00 | 87 | 1011.9 |
| 20260507083504 | 73 | 30 | 0.0 | 3.0 | 0.00 | 0.00 | 0.00 | 87 | 1012.0 |
| 20260507083401 | 73 | 30 | 0.0 | 3.0 | 0.00 | 0.00 | 0.00 | 87 | 1011.9 |
| 20260507083200 | 73 | 344 | 0.0 | 4.0 | 0.00 | 0.00 | 0.00 | 87 | 1012.0 |
| 20260507083101 | 73 | 333 | 3.0 | 4.0 | 0.00 | 0.00 | 0.00 | 87 | 1012.0 |
| 20260507083006 | 73 | 34 | 0.0 | 4.0 | 0.00 | 0.00 | 0.00 | 87 | 1012.0 |
| 20260507082900 | 73 | 19 | 2.0 | 4.0 | 0.00 | 0.00 | 0.00 | 87 | 1012.1 |
| 20260507082801 | 73 | 15 | 0.0 | 4.0 | 0.00 | 0.00 | 0.00 | 86 | 1012.1 |
| 20260507082701 | 73 | 359 | 2.0 | 4.0 | 0.00 | 0.00 | 0.00 | 86 | 1012.1 |
| 20260507082601 | 73 | 338 | 1.0 | 4.0 | 0.00 | 0.00 | 0.00 | 86 | 1012.0 |
| 20260507082506 | 73 | 338 | 0.0 | 4.0 | 0.00 | 0.00 | 0.00 | 87 | 1012.0 |
| 20260507082400 | 73 | 328 | 2.0 | 4.0 | 0.00 | 0.00 | 0.00 | 86 | 1012.0 |
| 20260507082300 | 73 | 38 | 2.0 | 4.0 | 0.00 | 0.00 | 0.00 | 87 | 1012.0 |
| 20260507082201 | 73 | 349 | 2.0 | 4.0 | 0.00 | 0.00 | 0.00 | 86 | 1012.1 |
| 20260507081901 | 73 | 330 | 1.0 | 4.0 | 0.00 | 0.00 | 0.00 | 86 | 1012.0 |
| 20260507081802 | 73 | 295 | 2.0 | 4.0 | 0.00 | 0.00 | 0.00 | 86 | 1011.9 |
| 20260507081600 | 73 | 326 | 0.0 | 4.0 | 0.00 | 0.00 | 0.00 | 86 | 1012.0 |
| 20260507081505 | 73 | 305 | 2.0 | 4.0 | 0.00 | 0.00 | 0.00 | 86 | 1012.1 |
| 20260507081301 | 73 | 289 | 0.0 | 5.0 | 0.00 | 0.00 | 0.00 | 86 | 1012.2 |
| 20260507081101 | 73 | 328 | 1.0 | 5.0 | 0.00 | 0.00 | 0.00 | 86 | 1012.2 |
| 20260507081005 | 73 | 351 | 0.0 | 5.0 | 0.00 | 0.00 | 0.00 | 86 | 1012.2 |
| 20260507080900 | 73 | 323 | 2.0 | 5.0 | 0.00 | 0.00 | 0.00 | 86 | 1012.0 |
| 20260507080803 | 73 | 321 | 0.0 | 5.0 | 0.00 | 0.00 | 0.00 | 86 | 1012.0 |
| 20260507080600 | 73 | 300 | 0.0 | 5.0 | 0.00 | 0.00 | 0.00 | 86 | 1012.0 |
| 20260507080506 | 73 | 8 | 2.0 | 5.0 | 0.00 | 0.00 | 0.00 | 86 | 1012.0 |
| 20260507080400 | 73 | 314 | 0.0 | 5.0 | 0.00 | 0.00 | 0.00 | 86 | 1012.1 |
| 20260507080201 | 73 | 305 | 0.0 | 5.0 | 0.00 | 0.00 | 0.00 | 86 | 1012.2 |
| 20260507080101 | 73 | 249 | 0.0 | 5.0 | 0.00 | 0.00 | 0.00 | 86 | 1012.1 |
| 20260507080007 | 73 | 319 | 1.0 | 5.0 | 0.00 | 0.00 | 0.00 | 86 | 1012.1 |
| 20260507075801 | 73 | 13 | 5.0 | 5.0 | 0.00 | 0.00 | 0.00 | 86 | 1012.0 |
| 20260507075702 | 73 | 352 | 0.0 | 6.0 | 0.00 | 0.00 | 0.00 | 86 | 1011.9 |
| 20260507075601 | 73 | 26 | 3.0 | 6.0 | 0.00 | 0.00 | 0.00 | 86 | 1011.9 |
| 20260507075505 | 73 | 321 | 2.0 | 6.0 | 0.00 | 0.00 | 0.00 | 86 | 1011.9 |
| 20260507075400 | 73 | 321 | 0.0 | 6.0 | 0.00 | 0.00 | 0.00 | 86 | 1012.0 |
| 20260507075301 | 73 | 316 | 0.0 | 6.0 | 0.00 | 0.00 | 0.00 | 86 | 1011.9 |
| 20260507075005 | 73 | 316 | 0.0 | 6.0 | 0.00 | 0.00 | 0.00 | 86 | 1012.0 |
| 20260507074901 | 73 | 215 | 0.0 | 6.0 | 0.00 | 0.00 | 0.00 | 86 | 1011.9 |
| 20260507074801 | 73 | 231 | 0.0 | 7.0 | 0.00 | 0.00 | 0.00 | 86 | 1011.9 |
| 20260507074701 | 73 | 230 | 0.0 | 7.0 | 0.00 | 0.00 | 0.00 | 86 | 1011.9 |
| 20260507074601 | 73 | 340 | 2.0 | 7.0 | 0.00 | 0.00 | 0.00 | 86 | 1011.9 |
| 20260507074303 | 73 | 329 | 0.0 | 7.0 | 0.00 | 0.00 | 0.00 | 86 | 1011.9 |
| 20260507074101 | 73 | 264 | 0.0 | 9.0 | 0.00 | 0.00 | 0.00 | 86 | 1011.9 |
| 20260507074006 | 73 | 331 | 0.0 | 9.0 | 0.00 | 0.00 | 0.00 | 86 | 1011.9 |
| 20260507073901 | 73 | 301 | 1.0 | 9.0 | 0.00 | 0.00 | 0.00 | 86 | 1012.0 |
| 20260507073801 | 73 | 271 | 2.0 | 9.0 | 0.00 | 0.00 | 0.00 | 86 | 1011.9 |
| 20260507073701 | 73 | 36 | 1.0 | 9.0 | 0.00 | 0.00 | 0.00 | 86 | 1011.9 |
| 20260507073600 | 73 | 352 | 0.0 | 9.0 | 0.00 | 0.00 | 0.00 | 86 | 1011.9 |
| 20260507073505 | 73 | 255 | 0.0 | 9.0 | 0.00 | 0.00 | 0.00 | 86 | 1011.9 |
| 20260507073401 | 73 | 311 | 0.0 | 9.0 | 0.00 | 0.00 | 0.00 | 86 | 1011.9 |
| 20260507073200 | 73 | 354 | 2.0 | 8.0 | 0.00 | 0.00 | 0.00 | 86 | 1011.9 |
| 20260507073006 | 73 | 310 | 0.0 | 6.0 | 0.00 | 0.00 | 0.00 | 86 | 1011.9 |
| 20260507072900 | 73 | 136 | 0.0 | 6.0 | 0.00 | 0.00 | 0.00 | 86 | 1011.8 |
| 20260507072800 | 73 | 328 | 1.0 | 6.0 | 0.00 | 0.00 | 0.00 | 86 | 1011.9 |
| 20260507072700 | 73 | 163 | 0.0 | 6.0 | 0.00 | 0.00 | 0.00 | 86 | 1011.9 |
| 20260507072600 | 73 | 337 | 6.0 | 6.0 | 0.00 | 0.00 | 0.00 | 86 | 1012.0 |
| 20260507072504 | 73 | 319 | 3.0 | 5.0 | 0.00 | 0.00 | 0.00 | 86 | 1012.0 |
| 20260507072400 | 73 | 22 | 4.0 | 5.0 | 0.00 | 0.00 | 0.00 | 86 | 1012.1 |
| 20260507072300 | 73 | 239 | 0.0 | 4.0 | 0.00 | 0.00 | 0.00 | 86 | 1012.1 |
| 20260507072006 | 73 | 337 | 1.0 | 4.0 | 0.00 | 0.00 | 0.00 | 86 | 1012.0 |
| 20260507071900 | 73 | 57 | 0.0 | 4.0 | 0.00 | 0.00 | 0.00 | 86 | 1012.0 |
| 20260507071800 | 73 | 162 | 0.0 | 4.0 | 0.00 | 0.00 | 0.00 | 86 | 1011.8 |
| 20260507071701 | 73 | 272 | 0.0 | 4.0 | 0.00 | 0.00 | 0.00 | 86 | 1011.9 |
| 20260507071601 | 73 | 335 | 0.0 | 4.0 | 0.00 | 0.00 | 0.00 | 86 | 1011.9 |
| 20260507071506 | 73 | 345 | 1.0 | 4.0 | 0.00 | 0.00 | 0.00 | 86 | 1011.9 |
| 20260507071401 | 73 | 291 | 3.0 | 4.0 | 0.00 | 0.00 | 0.00 | 86 | 1012.0 |
| 20260507071300 | 73 | 45 | 4.0 | 4.0 | 0.00 | 0.00 | 0.00 | 86 | 1012.0 |
| 20260507071201 | 73 | 354 | 3.0 | 4.0 | 0.00 | 0.00 | 0.00 | 86 | 1011.9 |
| 20260507071101 | 73 | 345 | 1.0 | 3.0 | 0.00 | 0.00 | 0.00 | 86 | 1012.1 |
| 20260507071005 | 73 | 333 | 2.0 | 3.0 | 0.00 | 0.00 | 0.00 | 86 | 1011.9 |
| 20260507070902 | 73 | 349 | 0.0 | 4.0 | 0.00 | 0.00 | 0.00 | 86 | 1011.8 |
| 20260507070700 | 73 | 347 | 3.0 | 4.0 | 0.00 | 0.00 | 0.00 | 86 | 1011.7 |
| 20260507070601 | 73 | 342 | 2.0 | 4.0 | 0.00 | 0.00 | 0.00 | 86 | 1011.6 |
| 20260507070505 | 73 | 321 | 2.0 | 4.0 | 0.00 | 0.00 | 0.00 | 86 | 1011.6 |
| 20260507070402 | 73 | 55 | 0.0 | 4.0 | 0.00 | 0.00 | 0.00 | 86 | 1011.7 |
| 20260507070301 | 73 | 205 | 0.0 | 4.0 | 0.00 | 0.00 | 0.00 | 86 | 1011.8 |
| 20260507070201 | 73 | 38 | 0.0 | 4.0 | 0.00 | 0.00 | 0.00 | 85 | 1011.9 |
| 20260507070100 | 73 | 30 | 1.0 | 7.0 | 0.00 | 0.00 | 0.00 | 85 | 1011.9 |
| 20260507070010 | 73 | 328 | 0.0 | 7.0 | 0.00 | 0.00 | 0.00 | 85 | 1011.9 |
| 20260507065901 | 73 | 245 | 0.0 | 7.0 | 0.00 | 0.00 | 0.00 | 85 | 1012.0 |
| 20260507065801 | 73 | 223 | 0.0 | 7.0 | 0.00 | 0.00 | 0.00 | 85 | 1012.1 |
| 20260507065700 | 73 | 319 | 0.0 | 7.0 | 0.00 | 0.00 | 0.00 | 85 | 1012.1 |
| 20260507065601 | 73 | 258 | 1.0 | 7.0 | 0.00 | 0.00 | 0.00 | 85 | 1012.1 |
| 20260507065505 | 73 | 34 | 0.0 | 7.0 | 0.00 | 0.00 | 0.00 | 85 | 1012.1 |
| 20260507065401 | 73 | 23 | 3.0 | 7.0 | 0.00 | 0.00 | 0.00 | 85 | 1012.0 |
| 20260507065300 | 73 | 32 | 1.0 | 7.0 | 0.00 | 0.00 | 0.00 | 85 | 1012.0 |
| 20260507065201 | 73 | 233 | 2.0 | 7.0 | 0.00 | 0.00 | 0.00 | 85 | 1012.0 |
| 20260507065101 | 73 | 319 | 0.0 | 4.0 | 0.00 | 0.00 | 0.00 | 85 | 1012.1 |
| 20260507065005 | 73 | 233 | 0.0 | 3.0 | 0.00 | 0.00 | 0.00 | 85 | 1012.1 |
| 20260507064801 | 73 | 293 | 2.0 | 3.0 | 0.00 | 0.00 | 0.00 | 85 | 1012.0 |
| 20260507064702 | 73 | 18 | 1.0 | 3.0 | 0.00 | 0.00 | 0.00 | 85 | 1012.0 |
| 20260507064559 | 73 | 323 | 2.0 | 3.0 | 0.00 | 0.00 | 0.00 | 85 | 1011.9 |
| 20260507064505 | 73 | 349 | 2.0 | 3.0 | 0.00 | 0.00 | 0.00 | 85 | 1011.9 |
| 20260507064300 | 73 | 317 | 0.0 | 6.0 | 0.00 | 0.00 | 0.00 | 85 | 1012.0 |
| 20260507064200 | 73 | 342 | 1.0 | 6.0 | 0.00 | 0.00 | 0.00 | 85 | 1012.0 |
| 20260507064100 | 73 | 337 | 0.0 | 6.0 | 0.00 | 0.00 | 0.00 | 85 | 1012.0 |
| 20260507064006 | 73 | 307 | 0.0 | 6.0 | 0.00 | 0.00 | 0.00 | 85 | 1012.0 |
| 20260507063901 | 73 | 236 | 0.0 | 6.0 | 0.00 | 0.00 | 0.00 | 85 | 1012.0 |
| 20260507063800 | 73 | 295 | 2.0 | 6.0 | 0.00 | 0.00 | 0.00 | 85 | 1011.9 |
| 20260507063602 | 73 | 52 | 3.0 | 6.0 | 0.00 | 0.00 | 0.00 | 85 | 1012.0 |
| 20260507063505 | 73 | 280 | 0.0 | 6.0 | 0.00 | 0.00 | 0.00 | 85 | 1012.0 |
| 20260507063401 | 73 | 43 | 0.0 | 6.0 | 0.00 | 0.00 | 0.00 | 85 | 1012.1 |
| 20260507063300 | 73 | 246 | 0.0 | 3.0 | 0.00 | 0.00 | 0.00 | 85 | 1012.1 |
| 20260507063200 | 73 | 304 | 0.0 | 3.0 | 0.00 | 0.00 | 0.00 | 85 | 1012.2 |
| 20260507062802 | 73 | 349 | 0.0 | 3.0 | 0.00 | 0.00 | 0.00 | 85 | 1012.3 |
| 20260507062701 | 73 | 32 | 0.0 | 3.0 | 0.00 | 0.00 | 0.00 | 85 | 1012.3 |
| 20260507062601 | 73 | 239 | 0.0 | 5.0 | 0.00 | 0.00 | 0.00 | 85 | 1012.3 |
| 20260507062505 | 73 | 239 | 0.0 | 5.0 | 0.00 | 0.00 | 0.00 | 85 | 1012.3 |
| 20260507062400 | 73 | 127 | 2.0 | 5.0 | 0.00 | 0.00 | 0.00 | 85 | 1012.3 |
| 20260507062301 | 73 | 15 | 0.0 | 5.0 | 0.00 | 0.00 | 0.00 | 85 | 1012.3 |
| 20260507062200 | 73 | 232 | 0.0 | 5.0 | 0.00 | 0.00 | 0.00 | 85 | 1012.4 |
| 20260507062100 | 73 | 297 | 0.0 | 5.0 | 0.00 | 0.00 | 0.00 | 85 | 1012.5 |
| 20260507062006 | 73 | 296 | 0.0 | 5.0 | 0.00 | 0.00 | 0.00 | 84 | 1012.5 |
| 20260507061600 | 73 | 36 | 1.0 | 3.0 | 0.00 | 0.00 | 0.00 | 84 | 1012.5 |
| 20260507061400 | 73 | 349 | 0.0 | 3.0 | 0.00 | 0.00 | 0.00 | 84 | 1012.5 |
| 20260507061300 | 73 | 295 | 0.0 | 3.0 | 0.00 | 0.00 | 0.00 | 84 | 1012.5 |
| 20260507061200 | 73 | 328 | 0.0 | 3.0 | 0.00 | 0.00 | 0.00 | 84 | 1012.6 |
| 20260507061101 | 73 | 295 | 0.0 | 3.0 | 0.00 | 0.00 | 0.00 | 84 | 1012.7 |
| 20260507060901 | 73 | 37 | 0.0 | 3.0 | 0.00 | 0.00 | 0.00 | 84 | 1012.6 |
| 20260507060800 | 73 | 241 | 0.0 | 3.0 | 0.00 | 0.00 | 0.00 | 84 | 1012.8 |
| 20260507060701 | 73 | 241 | 0.0 | 3.0 | 0.00 | 0.00 | 0.00 | 84 | 1012.7 |
| 20260507060601 | 73 | 360 | 0.0 | 4.0 | 0.00 | 0.00 | 0.00 | 84 | 1012.7 |
| 20260507060506 | 73 | 77 | 0.0 | 4.0 | 0.00 | 0.00 | 0.00 | 84 | 1012.7 |
| 20260507060400 | 73 | 321 | 1.0 | 4.0 | 0.00 | 0.00 | 0.00 | 84 | 1012.7 |
| 20260507060301 | 73 | 317 | 0.0 | 4.0 | 0.00 | 0.00 | 0.00 | 84 | 1012.7 |
| 20260507060201 | 73 | 304 | 0.0 | 4.0 | 0.00 | 0.00 | 0.00 | 84 | 1012.8 |
| 20260507060059 | 73 | 285 | 0.0 | 4.0 | 0.00 | 0.00 | 0.00 | 84 | 1012.7 |
| 20260507060008 | 73 | 149 | 3.0 | 4.0 | 0.00 | 0.00 | 0.00 | 84 | 1012.7 |
| 20260507055903 | 73 | 225 | 0.0 | 4.0 | 0.00 | 0.00 | 0.00 | 84 | 1012.8 |
| 20260507055804 | 73 | 20 | 0.0 | 4.0 | 0.00 | 0.00 | 0.00 | 84 | 1012.7 |
| 20260507055704 | 73 | 326 | 4.0 | 5.0 | 0.00 | 0.00 | 0.00 | 84 | 1012.6 |
| 20260507055603 | 73 | 130 | 0.0 | 5.0 | 0.00 | 0.00 | 0.00 | 84 | 1012.7 |
| 20260507055402 | 73 | 231 | 0.0 | 5.0 | 0.00 | 0.00 | 0.00 | 84 | 1012.7 |
| 20260507055305 | 73 | 36 | 0.0 | 5.0 | 0.00 | 0.00 | 0.00 | 83 | 1012.7 |
| 20260507055203 | 73 | 268 | 0.0 | 5.0 | 0.00 | 0.00 | 0.00 | 83 | 1012.7 |
| 20260507055102 | 73 | 26 | 0.0 | 5.0 | 0.00 | 0.00 | 0.00 | 83 | 1012.7 |
| 20260507055006 | 73 | 174 | 0.0 | 5.0 | 0.00 | 0.00 | 0.00 | 83 | 1012.8 |
| 20260507054903 | 73 | 38 | 1.0 | 5.0 | 0.00 | 0.00 | 0.00 | 83 | 1012.8 |
| 20260507054803 | 73 | 124 | 0.0 | 5.0 | 0.00 | 0.00 | 0.00 | 83 | 1012.8 |
| 20260507054703 | 73 | 321 | 0.0 | 4.0 | 0.00 | 0.00 | 0.00 | 83 | 1012.8 |
| 20260507054603 | 73 | 231 | 0.0 | 4.0 | 0.00 | 0.00 | 0.00 | 83 | 1012.8 |
| 20260507054506 | 73 | 280 | 2.0 | 3.0 | 0.00 | 0.00 | 0.00 | 83 | 1012.8 |
| 20260507054402 | 73 | 211 | 0.0 | 3.0 | 0.00 | 0.00 | 0.00 | 83 | 1012.7 |
| 20260507054303 | 73 | 342 | 0.0 | 3.0 | 0.00 | 0.00 | 0.00 | 83 | 1012.6 |
| 20260507054203 | 73 | 295 | 2.0 | 3.0 | 0.00 | 0.00 | 0.00 | 83 | 1012.5 |
| 20260507054102 | 73 | 46 | 1.0 | 3.0 | 0.00 | 0.00 | 0.00 | 83 | 1012.5 |
| 20260507054006 | 73 | 221 | 0.0 | 3.0 | 0.00 | 0.00 | 0.00 | 83 | 1012.5 |
| 20260507053902 | 73 | 360 | 0.0 | 4.0 | 0.00 | 0.00 | 0.00 | 83 | 1012.4 |
| 20260507053802 | 73 | 171 | 0.0 | 4.0 | 0.00 | 0.00 | 0.00 | 83 | 1012.4 |
| 20260507053604 | 73 | 220 | 1.0 | 4.0 | 0.00 | 0.00 | 0.00 | 82 | 1012.5 |
| 20260507053506 | 73 | 45 | 0.0 | 4.0 | 0.00 | 0.00 | 0.00 | 82 | 1012.5 |
| 20260507053402 | 73 | 20 | 0.0 | 4.0 | 0.00 | 0.00 | 0.00 | 82 | 1012.6 |
| 20260507053303 | 73 | 309 | 2.0 | 4.0 | 0.00 | 0.00 | 0.00 | 82 | 1012.6 |
| 20260507053203 | 73 | 65 | 2.0 | 4.0 | 0.00 | 0.00 | 0.00 | 82 | 1012.6 |
| 20260507053103 | 73 | 290 | 0.0 | 4.0 | 0.00 | 0.00 | 0.00 | 82 | 1012.5 |
| 20260507053007 | 73 | 10 | 3.0 | 4.0 | 0.00 | 0.00 | 0.00 | 82 | 1012.5 |
| 20260507052903 | 73 | 252 | 0.0 | 4.0 | 0.00 | 0.00 | 0.00 | 82 | 1012.5 |
| 20260507052802 | 73 | 24 | 3.0 | 4.0 | 0.00 | 0.00 | 0.00 | 82 | 1012.4 |
| 20260507052703 | 73 | 41 | 0.0 | 3.0 | 0.00 | 0.00 | 0.00 | 82 | 1012.4 |
| 20260507052603 | 73 | 303 | 0.0 | 3.0 | 0.00 | 0.00 | 0.00 | 82 | 1012.4 |
| 20260507052506 | 73 | 253 | 0.0 | 4.0 | 0.00 | 0.00 | 0.00 | 82 | 1012.4 |
| 20260507052403 | 73 | 20 | 3.0 | 5.0 | 0.00 | 0.00 | 0.00 | 82 | 1012.4 |
| 20260507052306 | 73 | 275 | 0.0 | 5.0 | 0.00 | 0.00 | 0.00 | 82 | 1012.4 |
| 20260507052103 | 73 | 264 | 0.0 | 5.0 | 0.00 | 0.00 | 0.00 | 82 | 1012.4 |
| 20260507052005 | 73 | 324 | 0.0 | 5.0 | 0.00 | 0.00 | 0.00 | 81 | 1012.6 |
| 20260507051902 | 73 | 338 | 1.0 | 5.0 | 0.00 | 0.00 | 0.00 | 81 | 1012.5 |
| 20260507051703 | 73 | 285 | 2.0 | 5.0 | 0.00 | 0.00 | 0.00 | 81 | 1012.5 |
| 20260507051505 | 73 | 286 | 2.0 | 5.0 | 0.00 | 0.00 | 0.00 | 81 | 1012.4 |
| 20260507051303 | 73 | 314 | 2.0 | 4.0 | 0.00 | 0.00 | 0.00 | 81 | 1012.1 |
| 20260507051203 | 73 | 3 | 0.0 | 4.0 | 0.00 | 0.00 | 0.00 | 81 | 1012.0 |
| 20260507051007 | 73 | 288 | 1.0 | 4.0 | 0.00 | 0.00 | 0.00 | 80 | 1011.9 |
| 20260507050803 | 73 | 53 | 4.0 | 4.0 | 0.00 | 0.00 | 0.00 | 80 | 1012.0 |
| 20260507050603 | 73 | 125 | 1.0 | 5.0 | 0.00 | 0.00 | 0.00 | 79 | 1012.0 |
| 20260507050402 | 73 | 149 | 0.0 | 5.0 | 0.00 | 0.00 | 0.00 | 79 | 1012.0 |
| 20260507050304 | 73 | 77 | 0.0 | 5.0 | 0.00 | 0.00 | 0.00 | 79 | 1012.0 |
| 20260507050203 | 73 | 223 | 1.0 | 5.0 | 0.00 | 0.00 | 0.00 | 79 | 1011.9 |
| 20260507045903 | 73 | 132 | 0.0 | 5.0 | 0.00 | 0.00 | 0.00 | 78 | 1011.7 |
| 20260507045604 | 73 | 58 | 0.0 | 6.0 | 0.00 | 0.00 | 0.00 | 78 | 1011.9 |
| 20260507045506 | 73 | 266 | 0.0 | 6.0 | 0.00 | 0.00 | 0.00 | 78 | 1011.9 |
| 20260507045403 | 73 | 207 | 0.0 | 6.0 | 0.00 | 0.00 | 0.00 | 78 | 1012.1 |
| 20260507045306 | 73 | 224 | 1.0 | 6.0 | 0.00 | 0.00 | 0.00 | 77 | 1012.1 |
| 20260507045203 | 73 | 117 | 0.0 | 6.0 | 0.00 | 0.00 | 0.00 | 77 | 1012.2 |
| 20260507045007 | 73 | 130 | 0.0 | 6.0 | 0.00 | 0.00 | 0.00 | 77 | 1012.3 |
| 20260507044904 | 73 | 91 | 3.0 | 6.0 | 0.00 | 0.00 | 0.00 | 77 | 1012.3 |
| 20260507044804 | 73 | 310 | 2.0 | 4.0 | 0.00 | 0.00 | 0.00 | 76 | 1012.3 |
| 20260507044703 | 73 | 60 | 2.0 | 5.0 | 0.00 | 0.00 | 0.00 | 76 | 1012.4 |
| 20260507044604 | 73 | 316 | 1.0 | 5.0 | 0.00 | 0.00 | 0.00 | 76 | 1012.5 |
| 20260507044506 | 73 | 125 | 1.0 | 5.0 | 0.00 | 0.00 | 0.00 | 76 | 1012.5 |
| 20260507044204 | 73 | 233 | 0.0 | 5.0 | 0.00 | 0.00 | 0.00 | 75 | 1012.7 |
| 20260507044104 | 73 | 233 | 0.0 | 5.0 | 0.00 | 0.00 | 0.00 | 75 | 1012.7 |
| 20260507044007 | 73 | 50 | 0.0 | 5.0 | 0.00 | 0.00 | 0.00 | 75 | 1012.8 |
| 20260507043903 | 73 | 50 | 0.0 | 5.0 | 0.00 | 0.00 | 0.00 | 75 | 1012.7 |
| 20260507043804 | 73 | 243 | 0.0 | 4.0 | 0.00 | 0.00 | 0.00 | 75 | 1012.8 |
| 20260507043404 | 73 | 15 | 0.0 | 4.0 | 0.00 | 0.00 | 0.00 | 74 | 1012.7 |
| 20260507043205 | 73 | 60 | 3.0 | 4.0 | 0.00 | 0.00 | 0.00 | 74 | 1012.7 |
| 20260507043104 | 73 | 235 | 0.0 | 4.0 | 0.00 | 0.00 | 0.00 | 74 | 1012.8 |
| 20260507043009 | 73 | 136 | 1.0 | 4.0 | 0.00 | 0.00 | 0.00 | 73 | 1012.8 |
| 20260507042804 | 74 | 285 | 0.0 | 4.0 | 0.00 | 0.00 | 0.00 | 73 | 1012.8 |
| 20260507042704 | 74 | 326 | 0.0 | 4.0 | 0.00 | 0.00 | 0.00 | 73 | 1012.8 |
| 20260507042604 | 74 | 256 | 0.0 | 4.0 | 0.00 | 0.00 | 0.00 | 73 | 1012.8 |
| 20260507042506 | 74 | 273 | 2.0 | 4.0 | 0.00 | 0.00 | 0.00 | 73 | 1012.7 |
| 20260507042403 | 74 | 33 | 0.0 | 4.0 | 0.00 | 0.00 | 0.00 | 73 | 1012.8 |
| 20260507042204 | 74 | 301 | 3.0 | 4.0 | 0.00 | 0.00 | 0.00 | 73 | 1012.9 |
| 20260507042105 | 74 | 252 | 0.0 | 4.0 | 0.00 | 0.00 | 0.00 | 73 | 1012.9 |
| 20260507042006 | 74 | 3 | 0.0 | 4.0 | 0.00 | 0.00 | 0.00 | 72 | 1012.9 |
| 20260507041904 | 74 | 257 | 0.0 | 4.0 | 0.00 | 0.00 | 0.00 | 72 | 1012.9 |
| 20260507041804 | 74 | 281 | 1.0 | 4.0 | 0.00 | 0.00 | 0.00 | 72 | 1013.0 |
| 20260507041703 | 74 | 142 | 0.0 | 4.0 | 0.00 | 0.00 | 0.00 | 72 | 1013.0 |
| 20260507041506 | 74 | 28 | 2.0 | 5.0 | 0.00 | 0.00 | 0.00 | 72 | 1013.1 |
| 20260507041404 | 74 | 333 | 0.0 | 5.0 | 0.00 | 0.00 | 0.00 | 71 | 1013.2 |
| 20260507041304 | 74 | 245 | 0.0 | 5.0 | 0.00 | 0.00 | 0.00 | 71 | 1013.1 |
| 20260507041203 | 74 | 252 | 0.0 | 5.0 | 0.00 | 0.00 | 0.00 | 71 | 1013.0 |
| 20260507040904 | 74 | 213 | 1.0 | 5.0 | 0.00 | 0.00 | 0.00 | 71 | 1013.1 |
| 20260507040605 | 74 | 26 | 1.0 | 4.0 | 0.00 | 0.00 | 0.00 | 70 | 1013.0 |
| 20260507040506 | 74 | 15 | 1.0 | 3.0 | 0.00 | 0.00 | 0.00 | 70 | 1013.0 |
| 20260507040403 | 74 | 335 | 1.0 | 3.0 | 0.00 | 0.00 | 0.00 | 70 | 1013.1 |
| 20260507040305 | 74 | 214 | 0.0 | 3.0 | 0.00 | 0.00 | 0.00 | 70 | 1013.1 |
| 20260507040203 | 74 | 286 | 0.0 | 3.0 | 0.00 | 0.00 | 0.00 | 70 | 1013.1 |
| 20260507040105 | 74 | 215 | 0.0 | 3.0 | 0.00 | 0.00 | 0.00 | 69 | 1013.1 |
| 20260507040009 | 74 | 215 | 2.0 | 3.0 | 0.00 | 0.00 | 0.00 | 69 | 1013.1 |
| 20260507035902 | 74 | 282 | 0.0 | 3.0 | 0.00 | 0.00 | 0.00 | 69 | 1013.3 |
| 20260507035803 | 74 | 172 | 0.0 | 3.0 | 0.00 | 0.00 | 0.00 | 69 | 1013.3 |
| 20260507035602 | 74 | 303 | 0.0 | 3.0 | 0.00 | 0.00 | 0.00 | 69 | 1013.4 |
| 20260507035505 | 74 | 288 | 0.0 | 3.0 | 0.00 | 0.00 | 0.00 | 69 | 1013.4 |
| 20260507035403 | 74 | 297 | 2.0 | 3.0 | 0.00 | 0.00 | 0.00 | 68 | 1013.4 |
| 20260507035306 | 74 | 295 | 0.0 | 3.0 | 0.00 | 0.00 | 0.00 | 68 | 1013.3 |
| 20260507035203 | 74 | 263 | 0.0 | 3.0 | 0.00 | 0.00 | 0.00 | 68 | 1013.3 |
| 20260507035005 | 74 | 26 | 0.0 | 3.0 | 0.00 | 0.00 | 0.00 | 68 | 1013.2 |
| 20260507034803 | 74 | 311 | 2.0 | 3.0 | 0.00 | 0.00 | 0.00 | 68 | 1012.8 |
| 20260507034702 | 74 | 321 | 3.0 | 3.0 | 0.00 | 0.00 | 0.00 | 68 | 1012.7 |
| 20260507034603 | 74 | 326 | 0.0 | 4.0 | 0.00 | 0.00 | 0.00 | 68 | 1012.7 |
| 20260507034506 | 74 | 319 | 0.0 | 4.0 | 0.00 | 0.00 | 0.00 | 67 | 1012.7 |
| 20260507034402 | 74 | 317 | 0.0 | 4.0 | 0.00 | 0.00 | 0.00 | 67 | 1012.7 |
| 20260507034303 | 74 | 323 | 0.0 | 4.0 | 0.00 | 0.00 | 0.00 | 67 | 1012.7 |
| 20260507034006 | 75 | 295 | 0.0 | 4.0 | 0.00 | 0.00 | 0.00 | 67 | 1012.8 |
| 20260507033902 | 75 | 295 | 1.0 | 4.0 | 0.00 | 0.00 | 0.00 | 67 | 1012.7 |
| 20260507033802 | 75 | 328 | 0.0 | 4.0 | 0.00 | 0.00 | 0.00 | 67 | 1012.8 |
| 20260507033702 | 75 | 32 | 4.0 | 4.0 | 0.00 | 0.00 | 0.00 | 67 | 1013.0 |
| 20260507033602 | 75 | 309 | 2.0 | 3.0 | 0.00 | 0.00 | 0.00 | 67 | 1012.9 |
| 20260507033506 | 75 | 286 | 0.0 | 3.0 | 0.00 | 0.00 | 0.00 | 67 | 1012.9 |
| 20260507033302 | 75 | 34 | 0.0 | 3.0 | 0.00 | 0.00 | 0.00 | 67 | 1013.0 |
| 20260507033203 | 75 | 234 | 1.0 | 3.0 | 0.00 | 0.00 | 0.00 | 67 | 1013.1 |
| 20260507033103 | 75 | 281 | 0.0 | 3.0 | 0.00 | 0.00 | 0.00 | 67 | 1013.2 |
| 20260507033007 | 75 | 302 | 0.0 | 3.0 | 0.00 | 0.00 | 0.00 | 67 | 1013.2 |
| 20260507032903 | 75 | 124 | 0.0 | 3.0 | 0.00 | 0.00 | 0.00 | 67 | 1013.3 |
| 20260507032803 | 75 | 295 | 2.0 | 3.0 | 0.00 | 0.00 | 0.00 | 66 | 1013.4 |
| 20260507032702 | 75 | 352 | 0.0 | 5.0 | 0.00 | 0.00 | 0.00 | 66 | 1013.3 |
| 20260507032602 | 75 | 231 | 0.0 | 5.0 | 0.00 | 0.00 | 0.00 | 66 | 1013.4 |
| 20260507032505 | 75 | 359 | 2.0 | 5.0 | 0.00 | 0.00 | 0.00 | 66 | 1013.4 |
| 20260507032305 | 75 | 251 | 0.0 | 5.0 | 0.00 | 0.00 | 0.00 | 66 | 1013.2 |
| 20260507032203 | 75 | 309 | 0.0 | 5.0 | 0.00 | 0.00 | 0.00 | 66 | 1013.1 |
| 20260507032103 | 75 | 321 | 0.0 | 5.0 | 0.00 | 0.00 | 0.00 | 66 | 1013.1 |
| 20260507032006 | 75 | 236 | 0.0 | 5.0 | 0.00 | 0.00 | 0.00 | 66 | 1013.1 |
| 20260507031803 | 75 | 238 | 0.0 | 5.0 | 0.00 | 0.00 | 0.00 | 66 | 1013.1 |
| 20260507031702 | 75 | 222 | 1.0 | 5.0 | 0.00 | 0.00 | 0.00 | 66 | 1013.1 |
| 20260507031506 | 75 | 120 | 0.0 | 4.0 | 0.00 | 0.00 | 0.00 | 66 | 1013.1 |
| 20260507031402 | 75 | 134 | 0.0 | 4.0 | 0.00 | 0.00 | 0.00 | 66 | 1013.2 |
| 20260507031302 | 75 | 250 | 2.0 | 3.0 | 0.00 | 0.00 | 0.00 | 66 | 1013.3 |
| 20260507031202 | 75 | 6 | 2.0 | 4.0 | 0.00 | 0.00 | 0.00 | 66 | 1013.3 |
| 20260507031103 | 75 | 247 | 0.0 | 4.0 | 0.00 | 0.00 | 0.00 | 67 | 1013.5 |
| 20260507030902 | 75 | 344 | 0.0 | 4.0 | 0.00 | 0.00 | 0.00 | 67 | 1013.5 |
| 20260507030802 | 75 | 253 | 1.0 | 5.0 | 0.00 | 0.00 | 0.00 | 67 | 1013.6 |
| 20260507030604 | 75 | 255 | 0.0 | 5.0 | 0.00 | 0.00 | 0.00 | 67 | 1013.7 |
| 20260507030402 | 75 | 287 | 0.0 | 5.0 | 0.00 | 0.00 | 0.00 | 67 | 1013.8 |
| 20260507030303 | 75 | 241 | 0.0 | 5.0 | 0.00 | 0.00 | 0.00 | 67 | 1013.8 |
| 20260507030203 | 75 | 317 | 1.0 | 5.0 | 0.00 | 0.00 | 0.00 | 67 | 1013.7 |
| 20260507030104 | 75 | 283 | 0.0 | 5.0 | 0.00 | 0.00 | 0.00 | 67 | 1013.8 |
| 20260507025903 | 76 | 304 | 0.0 | 5.0 | 0.00 | 0.00 | 0.00 | 67 | 1013.7 |
| 20260507025802 | 76 | 240 | 0.0 | 5.0 | 0.00 | 0.00 | 0.00 | 68 | 1013.7 |
| 20260507025701 | 76 | 244 | 1.0 | 5.0 | 0.00 | 0.00 | 0.00 | 68 | 1013.6 |
| 20260507025603 | 76 | 337 | 2.0 | 5.0 | 0.00 | 0.00 | 0.00 | 68 | 1013.6 |
| 20260507025506 | 76 | 344 | 0.0 | 5.0 | 0.00 | 0.00 | 0.00 | 68 | 1013.6 |
| 20260507025404 | 76 | 228 | 3.0 | 5.0 | 0.00 | 0.00 | 0.00 | 68 | 1013.6 |
| 20260507025306 | 76 | 295 | 0.0 | 5.0 | 0.00 | 0.00 | 0.00 | 68 | 1013.5 |
| 20260507025203 | 76 | 240 | 1.0 | 5.0 | 0.00 | 0.00 | 0.00 | 69 | 1013.5 |
| 20260507025006 | 76 | 351 | 0.0 | 4.0 | 0.00 | 0.00 | 0.00 | 69 | 1013.5 |
| 20260507024902 | 76 | 81 | 3.0 | 4.0 | 0.00 | 0.00 | 0.00 | 69 | 1013.5 |
| 20260507024804 | 76 | 236 | 0.0 | 4.0 | 0.00 | 0.00 | 0.00 | 69 | 1013.4 |
| 20260507024603 | 76 | 331 | 0.0 | 4.0 | 0.00 | 0.00 | 0.00 | 69 | 1013.5 |
| 20260507024506 | 76 | 255 | 0.0 | 4.0 | 0.00 | 0.00 | 0.00 | 69 | 1013.6 |
| 20260507024403 | 76 | 319 | 0.0 | 4.0 | 0.00 | 0.00 | 0.00 | 69 | 1013.6 |
| 20260507024302 | 76 | 293 | 2.0 | 4.0 | 0.00 | 0.00 | 0.00 | 69 | 1013.6 |
| 20260507024203 | 76 | 275 | 2.0 | 4.0 | 0.00 | 0.00 | 0.00 | 69 | 1013.6 |
| 20260507024103 | 76 | 333 | 0.0 | 4.0 | 0.00 | 0.00 | 0.00 | 69 | 1013.6 |
| 20260507024006 | 76 | 272 | 1.0 | 4.0 | 0.00 | 0.00 | 0.00 | 69 | 1013.6 |
| 20260507023902 | 76 | 3 | 2.0 | 3.0 | 0.00 | 0.00 | 0.00 | 69 | 1013.6 |
| 20260507023803 | 76 | 298 | 3.0 | 3.0 | 0.00 | 0.00 | 0.00 | 69 | 1013.5 |
| 20260507023702 | 76 | 316 | 2.0 | 3.0 | 0.00 | 0.00 | 0.00 | 69 | 1013.6 |
| 20260507023603 | 76 | 279 | 0.0 | 3.0 | 0.00 | 0.00 | 0.00 | 69 | 1013.3 |
| 20260507023506 | 76 | 264 | 2.0 | 3.0 | 0.00 | 0.00 | 0.00 | 69 | 1013.2 |
| 20260507023302 | 76 | 316 | 0.0 | 3.0 | 0.00 | 0.00 | 0.00 | 69 | 1013.4 |
| 20260507023202 | 76 | 309 | 0.0 | 3.0 | 0.00 | 0.00 | 0.00 | 69 | 1013.6 |
| 20260507023104 | 76 | 340 | 0.0 | 6.0 | 0.00 | 0.00 | 0.00 | 69 | 1013.7 |
| 20260507023008 | 76 | 317 | 1.0 | 6.0 | 0.00 | 0.00 | 0.00 | 69 | 1013.7 |
| 20260507022901 | 76 | 360 | 2.0 | 6.0 | 0.00 | 0.00 | 0.00 | 70 | 1013.7 |
| 20260507022803 | 76 | 354 | 3.0 | 6.0 | 0.00 | 0.00 | 0.00 | 70 | 1013.6 |
| 20260507022702 | 76 | 303 | 1.0 | 6.0 | 0.00 | 0.00 | 0.00 | 70 | 1013.5 |
| 20260507022602 | 76 | 253 | 0.0 | 6.0 | 0.00 | 0.00 | 0.00 | 70 | 1013.6 |
| 20260507022506 | 76 | 172 | 0.0 | 6.0 | 0.00 | 0.00 | 0.00 | 70 | 1013.6 |
| 20260507022402 | 76 | 319 | 0.0 | 6.0 | 0.00 | 0.00 | 0.00 | 70 | 1013.7 |
| 20260507022306 | 76 | 347 | 0.0 | 6.0 | 0.00 | 0.00 | 0.00 | 70 | 1013.6 |
| 20260507022203 | 76 | 351 | 2.0 | 5.0 | 0.00 | 0.00 | 0.00 | 70 | 1013.5 |
| 20260507022103 | 76 | 323 | 3.0 | 5.0 | 0.00 | 0.00 | 0.00 | 70 | 1013.5 |
| 20260507022006 | 76 | 288 | 0.0 | 5.0 | 0.00 | 0.00 | 0.00 | 70 | 1013.4 |
| 20260507021903 | 76 | 321 | 1.0 | 5.0 | 0.00 | 0.00 | 0.00 | 70 | 1013.3 |
| 20260507021802 | 76 | 302 | 2.0 | 5.0 | 0.00 | 0.00 | 0.00 | 70 | 1013.3 |
| 20260507021603 | 77 | 242 | 0.0 | 5.0 | 0.00 | 0.00 | 0.00 | 70 | 1013.0 |
| 20260507021506 | 77 | 284 | 0.0 | 5.0 | 0.00 | 0.00 | 0.00 | 70 | 1012.9 |
| 20260507021404 | 77 | 301 | 0.0 | 5.0 | 0.00 | 0.00 | 0.00 | 70 | 1012.9 |
| 20260507021302 | 77 | 258 | 0.0 | 5.0 | 0.00 | 0.00 | 0.00 | 70 | 1012.8 |
| 20260507020903 | 77 | 264 | 0.0 | 4.0 | 0.00 | 0.00 | 0.00 | 70 | 1013.0 |
| 20260507020803 | 77 | 213 | 0.0 | 4.0 | 0.00 | 0.00 | 0.00 | 70 | 1012.9 |
| 20260507020703 | 77 | 305 | 0.0 | 6.0 | 0.00 | 0.00 | 0.00 | 70 | 1012.8 |
| 20260507020603 | 77 | 294 | 2.0 | 6.0 | 0.00 | 0.00 | 0.00 | 70 | 1012.7 |
| 20260507020505 | 77 | 251 | 0.0 | 6.0 | 0.00 | 0.00 | 0.00 | 70 | 1012.7 |
| 20260507020403 | 77 | 207 | 2.0 | 6.0 | 0.00 | 0.00 | 0.00 | 70 | 1012.5 |
| 20260507020203 | 77 | 283 | 3.0 | 6.0 | 0.00 | 0.00 | 0.00 | 70 | 1012.6 |
| 20260507020103 | 77 | 304 | 0.0 | 6.0 | 0.00 | 0.00 | 0.00 | 70 | 1012.6 |
| 20260507020010 | 77 | 319 | 0.0 | 6.0 | 0.00 | 0.00 | 0.00 | 70 | 1012.6 |
| 20260507015903 | 77 | 247 | 1.0 | 6.0 | 0.00 | 0.00 | 0.00 | 70 | 1012.7 |
| 20260507015802 | 77 | 251 | 2.0 | 6.0 | 0.00 | 0.00 | 0.00 | 70 | 1012.7 |
| 20260507015703 | 77 | 19 | 3.0 | 4.0 | 0.00 | 0.00 | 0.00 | 70 | 1012.8 |
| 20260507015604 | 77 | 207 | 0.0 | 4.0 | 0.00 | 0.00 | 0.00 | 70 | 1012.8 |
| 20260507015506 | 77 | 199 | 1.0 | 4.0 | 0.00 | 0.00 | 0.00 | 70 | 1012.9 |
| 20260507015306 | 77 | 309 | 0.0 | 4.0 | 0.00 | 0.00 | 0.00 | 70 | 1013.1 |
| 20260507015202 | 77 | 259 | 1.0 | 4.0 | 0.00 | 0.00 | 0.00 | 70 | 1013.1 |
| 20260507015102 | 77 | 340 | 0.0 | 4.0 | 0.00 | 0.00 | 0.00 | 70 | 1013.2 |
| 20260507015007 | 77 | 169 | 0.0 | 4.0 | 0.00 | 0.00 | 0.00 | 70 | 1013.1 |
| 20260507014902 | 77 | 234 | 3.0 | 6.0 | 0.00 | 0.00 | 0.00 | 70 | 1012.9 |
| 20260507014804 | 78 | 294 | 1.0 | 6.0 | 0.00 | 0.00 | 0.00 | 70 | 1012.8 |
| 20260507014703 | 78 | 331 | 1.0 | 6.0 | 0.00 | 0.00 | 0.00 | 70 | 1012.7 |
| 20260507014602 | 78 | 282 | 4.0 | 6.0 | 0.00 | 0.00 | 0.00 | 70 | 1012.7 |
| 20260507014506 | 78 | 283 | 2.0 | 6.0 | 0.00 | 0.00 | 0.00 | 70 | 1012.6 |
| 20260507014403 | 78 | 307 | 2.0 | 6.0 | 0.00 | 0.00 | 0.00 | 70 | 1012.5 |
| 20260507014303 | 78 | 165 | 1.0 | 6.0 | 0.00 | 0.00 | 0.00 | 70 | 1012.6 |
| 20260507014202 | 78 | 259 | 1.0 | 6.0 | 0.00 | 0.00 | 0.00 | 70 | 1012.6 |
| 20260507014102 | 78 | 314 | 0.0 | 6.0 | 0.00 | 0.00 | 0.00 | 70 | 1012.7 |
| 20260507013902 | 78 | 209 | 3.0 | 4.0 | 0.00 | 0.00 | 0.00 | 70 | 1012.6 |
| 20260507013802 | 78 | 315 | 1.0 | 4.0 | 0.00 | 0.00 | 0.00 | 70 | 1012.7 |
| 20260507013703 | 78 | 276 | 0.0 | 4.0 | 0.00 | 0.00 | 0.00 | 70 | 1012.7 |
| 20260507013603 | 78 | 79 | 0.0 | 4.0 | 0.00 | 0.00 | 0.00 | 70 | 1012.8 |
| 20260507013402 | 78 | 241 | 1.0 | 4.0 | 0.00 | 0.00 | 0.00 | 70 | 1012.9 |
| 20260507013303 | 78 | 286 | 2.0 | 4.0 | 0.00 | 0.00 | 0.00 | 70 | 1012.9 |
| 20260507013203 | 78 | 330 | 3.0 | 4.0 | 0.00 | 0.00 | 0.00 | 70 | 1012.8 |
| 20260507013102 | 78 | 278 | 0.0 | 4.0 | 0.00 | 0.00 | 0.00 | 70 | 1012.7 |
| 20260507013008 | 78 | 293 | 2.0 | 4.0 | 0.00 | 0.00 | 0.00 | 70 | 1012.7 |
| 20260507012803 | 78 | 304 | 0.0 | 4.0 | 0.00 | 0.00 | 0.00 | 70 | 1012.6 |
| 20260507012702 | 78 | 286 | 0.0 | 4.0 | 0.00 | 0.00 | 0.00 | 70 | 1012.5 |
| 20260507012602 | 78 | 302 | 0.0 | 4.0 | 0.00 | 0.00 | 0.00 | 70 | 1012.6 |
| 20260507012506 | 78 | 285 | 4.0 | 5.0 | 0.00 | 0.00 | 0.00 | 70 | 1012.6 |
| 20260507012306 | 78 | 271 | 1.0 | 5.0 | 0.00 | 0.00 | 0.00 | 70 | 1012.5 |
| 20260507012203 | 78 | 253 | 3.0 | 5.0 | 0.00 | 0.00 | 0.00 | 70 | 1012.5 |
| 20260507012006 | 78 | 286 | 2.0 | 5.0 | 0.00 | 0.00 | 0.00 | 70 | 1012.4 |
| 20260507011903 | 78 | 317 | 2.0 | 5.0 | 0.00 | 0.00 | 0.00 | 70 | 1012.6 |
| 20260507011802 | 78 | 290 | 2.0 | 5.0 | 0.00 | 0.00 | 0.00 | 70 | 1012.6 |
| 20260507011602 | 78 | 259 | 3.0 | 5.0 | 0.00 | 0.00 | 0.00 | 70 | 1012.7 |
| 20260507011506 | 78 | 270 | 2.0 | 6.0 | 0.00 | 0.00 | 0.00 | 70 | 1012.7 |
| 20260507011402 | 78 | 294 | 2.0 | 6.0 | 0.00 | 0.00 | 0.00 | 70 | 1012.8 |
| 20260507011203 | 79 | 285 | 1.0 | 6.0 | 0.00 | 0.00 | 0.00 | 70 | 1012.8 |
| 20260507011006 | 79 | 303 | 3.0 | 6.0 | 0.00 | 0.00 | 0.00 | 69 | 1012.7 |
| 20260507010902 | 79 | 267 | 4.0 | 6.0 | 0.00 | 0.00 | 0.00 | 69 | 1012.7 |
| 20260507010802 | 79 | 40 | 0.0 | 6.0 | 0.00 | 0.00 | 0.00 | 69 | 1012.6 |
| 20260507010603 | 79 | 261 | 0.0 | 4.0 | 0.00 | 0.00 | 0.00 | 69 | 1012.6 |
| 20260507010506 | 79 | 335 | 2.0 | 4.0 | 0.00 | 0.00 | 0.00 | 69 | 1012.7 |
| 20260507010404 | 79 | 287 | 0.0 | 4.0 | 0.00 | 0.00 | 0.00 | 69 | 1012.7 |
| 20260507010202 | 79 | 293 | 0.0 | 4.0 | 0.00 | 0.00 | 0.00 | 69 | 1012.7 |
| 20260507010104 | 79 | 273 | 1.0 | 4.0 | 0.00 | 0.00 | 0.00 | 69 | 1012.7 |
| 20260507010008 | 79 | 270 | 3.0 | 4.0 | 0.00 | 0.00 | 0.00 | 69 | 1012.7 |
| 20260507005903 | 79 | 267 | 1.0 | 4.0 | 0.00 | 0.00 | 0.00 | 69 | 1012.8 |
| 20260507005803 | 79 | 221 | 2.0 | 4.0 | 0.00 | 0.00 | 0.00 | 69 | 1012.7 |
| 20260507005703 | 79 | 274 | 1.0 | 4.0 | 0.00 | 0.00 | 0.00 | 69 | 1012.7 |
| 20260507005602 | 79 | 292 | 2.0 | 4.0 | 0.00 | 0.00 | 0.00 | 69 | 1012.7 |
| 20260507005305 | 79 | 265 | 2.0 | 7.0 | 0.00 | 0.00 | 0.00 | 69 | 1012.7 |
| 20260507005102 | 79 | 294 | 2.0 | 7.0 | 0.00 | 0.00 | 0.00 | 68 | 1012.7 |
| 20260507005006 | 79 | 271 | 1.0 | 7.0 | 0.00 | 0.00 | 0.00 | 68 | 1012.7 |
| 20260507004902 | 79 | 349 | 4.0 | 7.0 | 0.00 | 0.00 | 0.00 | 68 | 1012.6 |
| 20260507004803 | 79 | 279 | 3.0 | 7.0 | 0.00 | 0.00 | 0.00 | 68 | 1012.6 |
| 20260507004703 | 79 | 270 | 2.0 | 7.0 | 0.00 | 0.00 | 0.00 | 68 | 1012.7 |
| 20260507004602 | 79 | 255 | 3.0 | 7.0 | 0.00 | 0.00 | 0.00 | 68 | 1012.7 |
| 20260507004506 | 79 | 354 | 7.0 | 7.0 | 0.00 | 0.00 | 0.00 | 68 | 1012.7 |
| 20260507004402 | 79 | 261 | 1.0 | 4.0 | 0.00 | 0.00 | 0.00 | 68 | 1012.7 |
| 20260507004302 | 79 | 311 | 2.0 | 4.0 | 0.00 | 0.00 | 0.00 | 68 | 1012.7 |
| 20260507004103 | 79 | 360 | 2.0 | 4.0 | 0.00 | 0.00 | 0.00 | 68 | 1012.8 |
| 20260507003804 | 79 | 326 | 3.0 | 4.0 | 0.00 | 0.00 | 0.00 | 67 | 1012.8 |
| 20260507003703 | 79 | 279 | 3.0 | 4.0 | 0.00 | 0.00 | 0.00 | 67 | 1012.8 |
| 20260507003603 | 79 | 253 | 2.0 | 4.0 | 0.00 | 0.00 | 0.00 | 67 | 1012.8 |
| 20260507003506 | 79 | 270 | 3.0 | 4.0 | 0.00 | 0.00 | 0.00 | 67 | 1012.9 |
| 20260507003403 | 80 | 276 | 2.0 | 4.0 | 0.00 | 0.00 | 0.00 | 67 | 1012.9 |
| 20260507003302 | 80 | 271 | 2.0 | 4.0 | 0.00 | 0.00 | 0.00 | 67 | 1013.0 |
| 20260507003203 | 80 | 243 | 3.0 | 4.0 | 0.00 | 0.00 | 0.00 | 67 | 1012.9 |
| 20260507003102 | 79 | 260 | 3.0 | 4.0 | 0.00 | 0.00 | 0.00 | 67 | 1012.9 |
| 20260507003008 | 80 | 283 | 2.0 | 4.0 | 0.00 | 0.00 | 0.00 | 67 | 1012.9 |
| 20260507002904 | 80 | 296 | 2.0 | 4.0 | 0.00 | 0.00 | 0.00 | 66 | 1012.8 |
| 20260507002803 | 80 | 304 | 0.0 | 3.0 | 0.00 | 0.00 | 0.00 | 66 | 1012.8 |
| 20260507002702 | 80 | 282 | 2.0 | 3.0 | 0.00 | 0.00 | 0.00 | 66 | 1012.7 |
| 20260507002602 | 80 | 307 | 2.0 | 3.0 | 0.00 | 0.00 | 0.00 | 66 | 1012.7 |
| 20260507002505 | 80 | 329 | 3.0 | 3.0 | 0.00 | 0.00 | 0.00 | 66 | 1012.7 |
| 20260507002403 | 80 | 267 | 0.0 | 4.0 | 0.00 | 0.00 | 0.00 | 65 | 1012.7 |
| 20260507002306 | 80 | 286 | 3.0 | 4.0 | 0.00 | 0.00 | 0.00 | 65 | 1012.6 |
| 20260507002102 | 80 | 270 | 2.0 | 4.0 | 0.00 | 0.00 | 0.00 | 65 | 1012.7 |
| 20260507002006 | 80 | 250 | 2.0 | 4.0 | 0.00 | 0.00 | 0.00 | 65 | 1012.7 |
| 20260507001902 | 80 | 264 | 3.0 | 4.0 | 0.00 | 0.00 | 0.00 | 65 | 1012.7 |
| 20260507001803 | 80 | 257 | 2.0 | 4.0 | 0.00 | 0.00 | 0.00 | 65 | 1012.7 |
| 20260507001704 | 80 | 334 | 2.0 | 4.0 | 0.00 | 0.00 | 0.00 | 64 | 1012.6 |
| 20260507001602 | 80 | 289 | 3.0 | 4.0 | 0.00 | 0.00 | 0.00 | 64 | 1012.6 |
| 20260507001506 | 80 | 271 | 2.0 | 4.0 | 0.00 | 0.00 | 0.00 | 64 | 1012.6 |
| 20260507001403 | 81 | 301 | 2.0 | 4.0 | 0.00 | 0.00 | 0.00 | 64 | 1012.7 |
| 20260507001303 | 81 | 251 | 2.0 | 4.0 | 0.00 | 0.00 | 0.00 | 64 | 1012.7 |
| 20260507001204 | 81 | 238 | 4.0 | 4.0 | 0.00 | 0.00 | 0.00 | 64 | 1012.8 |
| 20260507001102 | 81 | 286 | 0.0 | 4.0 | 0.00 | 0.00 | 0.00 | 64 | 1012.8 |
| 20260507001007 | 81 | 308 | 0.0 | 4.0 | 0.00 | 0.00 | 0.00 | 63 | 1012.8 |
| 20260507000903 | 81 | 259 | 0.0 | 4.0 | 0.00 | 0.00 | 0.00 | 63 | 1012.8 |
| 20260507000702 | 81 | 303 | 2.0 | 4.0 | 0.00 | 0.00 | 0.00 | 63 | 1012.8 |
| 20260507000405 | 81 | 296 | 2.0 | 4.0 | 0.00 | 0.00 | 0.00 | 63 | 1012.8 |
| 20260507000303 | 81 | 32 | 1.0 | 4.0 | 0.00 | 0.00 | 0.00 | 63 | 1012.8 |
| 20260507000204 | 81 | 258 | 3.0 | 4.0 | 0.00 | 0.00 | 0.00 | 62 | 1012.8 |
| 20260506235902 | 81 | 289 | 1.0 | 4.0 | 0.00 | 0.00 | 0.00 | 62 | 1013.1 |
| 20260506235701 | 81 | 273 | 2.0 | 4.0 | 0.00 | 0.00 | 0.00 | 62 | 1012.8 |
| 20260506235602 | 81 | 254 | 0.0 | 4.0 | 0.00 | 0.00 | 0.00 | 62 | 1012.8 |
| 20260506235505 | 81 | 259 | 3.0 | 4.0 | 0.00 | 0.00 | 0.00 | 62 | 1012.8 |
| 20260506235403 | 81 | 248 | 3.0 | 4.0 | 0.00 | 0.00 | 0.00 | 61 | 1012.8 |
| 20260506235306 | 81 | 267 | 0.0 | 4.0 | 0.00 | 0.00 | 0.00 | 62 | 1012.8 |
| 20260506235202 | 81 | 256 | 1.0 | 4.0 | 0.00 | 0.00 | 0.00 | 61 | 1012.8 |
| 20260506235102 | 81 | 272 | 3.0 | 4.0 | 0.00 | 0.00 | 0.00 | 61 | 1012.8 |
| 20260506235005 | 81 | 284 | 3.0 | 4.0 | 0.00 | 0.00 | 0.00 | 61 | 1012.8 |
| 20260506234901 | 81 | 274 | 3.0 | 4.0 | 0.00 | 0.00 | 0.00 | 61 | 1012.7 |
| 20260506234801 | 81 | 240 | 2.0 | 3.0 | 0.00 | 0.00 | 0.00 | 61 | 1012.7 |
| 20260506234703 | 81 | 275 | 2.0 | 3.0 | 0.00 | 0.00 | 0.00 | 61 | 1012.7 |
| 20260506234602 | 81 | 259 | 0.0 | 4.0 | 0.00 | 0.00 | 0.00 | 61 | 1012.7 |
| 20260506234506 | 81 | 249 | 3.0 | 4.0 | 0.00 | 0.00 | 0.00 | 60 | 1012.7 |
| 20260506234401 | 81 | 264 | 1.0 | 4.0 | 0.00 | 0.00 | 0.00 | 60 | 1012.7 |
| 20260506234301 | 81 | 279 | 1.0 | 4.0 | 0.00 | 0.00 | 0.00 | 60 | 1012.6 |
| 20260506234202 | 81 | 238 | 0.0 | 4.0 | 0.00 | 0.00 | 0.00 | 60 | 1012.6 |
| 20260506233901 | 82 | 285 | 1.0 | 4.0 | 0.00 | 0.00 | 0.00 | 60 | 1012.6 |
| 20260506233801 | 82 | 260 | 2.0 | 4.0 | 0.00 | 0.00 | 0.00 | 60 | 1012.5 |
| 20260506233701 | 82 | 283 | 3.0 | 3.0 | 0.00 | 0.00 | 0.00 | 59 | 1012.5 |
| 20260506233601 | 82 | 286 | 0.0 | 3.0 | 0.00 | 0.00 | 0.00 | 59 | 1012.5 |
| 20260506233505 | 82 | 280 | 2.0 | 3.0 | 0.00 | 0.00 | 0.00 | 59 | 1012.5 |
| 20260506233401 | 82 | 277 | 1.0 | 4.0 | 0.00 | 0.00 | 0.00 | 59 | 1012.6 |
| 20260506233302 | 82 | 272 | 2.0 | 4.0 | 0.00 | 0.00 | 0.00 | 59 | 1012.6 |
| 20260506233201 | 82 | 252 | 0.0 | 4.0 | 0.00 | 0.00 | 0.00 | 59 | 1012.6 |
| 20260506232902 | 82 | 279 | 2.0 | 4.0 | 0.00 | 0.00 | 0.00 | 59 | 1012.6 |
| 20260506232802 | 82 | 279 | 0.0 | 4.0 | 0.00 | 0.00 | 0.00 | 59 | 1012.6 |
| 20260506232701 | 82 | 265 | 2.0 | 4.0 | 0.00 | 0.00 | 0.00 | 59 | 1012.6 |
| 20260506232601 | 82 | 302 | 1.0 | 4.0 | 0.00 | 0.00 | 0.00 | 59 | 1012.7 |
| 20260506232505 | 82 | 242 | 2.0 | 4.0 | 0.00 | 0.00 | 0.00 | 59 | 1012.7 |
| 20260506232306 | 82 | 248 | 2.0 | 4.0 | 0.00 | 0.00 | 0.00 | 59 | 1012.7 |
| 20260506232103 | 82 | 269 | 1.0 | 4.0 | 0.00 | 0.00 | 0.00 | 59 | 1012.7 |
| 20260506232005 | 82 | 285 | 0.0 | 4.0 | 0.00 | 0.00 | 0.00 | 59 | 1012.7 |
| 20260506231901 | 82 | 299 | 2.0 | 5.0 | 0.00 | 0.00 | 0.00 | 58 | 1012.7 |
| 20260506231801 | 82 | 258 | 3.0 | 7.0 | 0.00 | 0.00 | 0.00 | 58 | 1012.6 |
| 20260506231702 | 82 | 244 | 0.0 | 7.0 | 0.00 | 0.00 | 0.00 | 58 | 1012.6 |
| 20260506231601 | 82 | 278 | 3.0 | 7.0 | 0.00 | 0.00 | 0.00 | 58 | 1012.7 |
| 20260506231506 | 82 | 307 | 1.0 | 7.0 | 0.00 | 0.00 | 0.00 | 58 | 1012.7 |
| 20260506231402 | 82 | 13 | 1.0 | 7.0 | 0.00 | 0.00 | 0.00 | 58 | 1012.7 |
| 20260506231301 | 83 | 288 | 0.0 | 7.0 | 0.00 | 0.00 | 0.00 | 58 | 1012.7 |
| 20260506231202 | 83 | 345 | 1.0 | 7.0 | 0.00 | 0.00 | 0.00 | 58 | 1012.6 |
| 20260506231101 | 83 | 227 | 2.0 | 7.0 | 0.00 | 0.00 | 0.00 | 58 | 1012.7 |
| 20260506231005 | 83 | 240 | 2.0 | 7.0 | 0.00 | 0.00 | 0.00 | 58 | 1012.7 |
| 20260506230902 | 83 | 229 | 2.0 | 6.0 | 0.00 | 0.00 | 0.00 | 58 | 1012.6 |
| 20260506230801 | 83 | 333 | 2.0 | 6.0 | 0.00 | 0.00 | 0.00 | 58 | 1012.7 |
| 20260506230602 | 83 | 284 | 0.0 | 6.0 | 0.00 | 0.00 | 0.00 | 57 | 1012.7 |
| 20260506230504 | 83 | 279 | 3.0 | 6.0 | 0.00 | 0.00 | 0.00 | 57 | 1012.6 |
| 20260506230403 | 83 | 156 | 0.0 | 6.0 | 0.00 | 0.00 | 0.00 | 57 | 1012.6 |
| 20260506230301 | 83 | 243 | 2.0 | 6.0 | 0.00 | 0.00 | 0.00 | 57 | 1012.5 |
| 20260506230202 | 83 | 19 | 0.0 | 6.0 | 0.00 | 0.00 | 0.00 | 57 | 1012.5 |
| 20260506230007 | 83 | 227 | 5.0 | 6.0 | 0.00 | 0.00 | 0.00 | 56 | 1012.6 |
| 20260506225902 | 83 | 189 | 0.0 | 6.0 | 0.00 | 0.00 | 0.00 | 56 | 1012.4 |
| 20260506225802 | 83 | 167 | 0.0 | 6.0 | 0.00 | 0.00 | 0.00 | 57 | 1012.5 |
| 20260506225702 | 83 | 262 | 0.0 | 6.0 | 0.00 | 0.00 | 0.00 | 57 | 1012.5 |
| 20260506225602 | 83 | 131 | 0.0 | 6.0 | 0.00 | 0.00 | 0.00 | 57 | 1012.5 |
| 20260506225505 | 83 | 278 | 2.0 | 6.0 | 0.00 | 0.00 | 0.00 | 56 | 1012.5 |
| 20260506225402 | 83 | 262 | 2.0 | 6.0 | 0.00 | 0.00 | 0.00 | 56 | 1012.5 |
| 20260506225300 | 83 | 211 | 2.0 | 4.0 | 0.00 | 0.00 | 0.00 | 56 | 1012.4 |
| 20260506225201 | 84 | 320 | 1.0 | 4.0 | 0.00 | 0.00 | 0.00 | 56 | 1012.4 |
| 20260506225102 | 84 | 236 | 3.0 | 4.0 | 0.00 | 0.00 | 0.00 | 56 | 1012.3 |
| 20260506224901 | 84 | 287 | 1.0 | 6.0 | 0.00 | 0.00 | 0.00 | 56 | 1012.3 |
| 20260506224803 | 84 | 235 | 1.0 | 6.0 | 0.00 | 0.00 | 0.00 | 56 | 1012.2 |
| 20260506224701 | 84 | 207 | 1.0 | 6.0 | 0.00 | 0.00 | 0.00 | 56 | 1012.2 |
| 20260506224603 | 84 | 252 | 3.0 | 6.0 | 0.00 | 0.00 | 0.00 | 56 | 1012.3 |
| 20260506224505 | 84 | 247 | 2.0 | 6.0 | 0.00 | 0.00 | 0.00 | 56 | 1012.2 |
| 20260506224401 | 84 | 239 | 2.0 | 6.0 | 0.00 | 0.00 | 0.00 | 56 | 1012.1 |
| 20260506224303 | 84 | 236 | 0.0 | 6.0 | 0.00 | 0.00 | 0.00 | 56 | 1012.1 |
| 20260506224202 | 84 | 221 | 0.0 | 6.0 | 0.00 | 0.00 | 0.00 | 55 | 1012.0 |
| 20260506224101 | 84 | 172 | 0.0 | 6.0 | 0.00 | 0.00 | 0.00 | 56 | 1012.0 |
| 20260506224006 | 84 | 253 | 0.0 | 4.0 | 0.00 | 0.00 | 0.00 | 55 | 1012.0 |
| 20260506223901 | 84 | 188 | 0.0 | 4.0 | 0.00 | 0.00 | 0.00 | 55 | 1012.0 |
| 20260506223802 | 84 | 202 | 3.0 | 4.0 | 0.00 | 0.00 | 0.00 | 55 | 1012.1 |
| 20260506223602 | 84 | 252 | 2.0 | 3.0 | 0.00 | 0.00 | 0.00 | 55 | 1012.2 |
| 20260506223505 | 84 | 260 | 2.0 | 3.0 | 0.00 | 0.00 | 0.00 | 55 | 1012.2 |
| 20260506223401 | 84 | 251 | 3.0 | 3.0 | 0.00 | 0.00 | 0.00 | 55 | 1012.2 |
| 20260506223301 | 84 | 257 | 2.0 | 3.0 | 0.00 | 0.00 | 0.00 | 55 | 1012.2 |
| 20260506223201 | 84 | 300 | 2.0 | 3.0 | 0.00 | 0.00 | 0.00 | 55 | 1012.2 |
| 20260506223102 | 84 | 309 | 0.0 | 4.0 | 0.00 | 0.00 | 0.00 | 55 | 1012.2 |
| 20260506223006 | 84 | 226 | 1.0 | 4.0 | 0.00 | 0.00 | 0.00 | 55 | 1012.2 |
| 20260506222802 | 84 | 289 | 0.0 | 4.0 | 0.00 | 0.00 | 0.00 | 54 | 1012.3 |
| 20260506222703 | 84 | 247 | 2.0 | 4.0 | 0.00 | 0.00 | 0.00 | 55 | 1012.4 |
| 20260506222602 | 84 | 263 | 2.0 | 4.0 | 0.00 | 0.00 | 0.00 | 54 | 1012.4 |
| 20260506222506 | 84 | 245 | 0.0 | 4.0 | 0.00 | 0.00 | 0.00 | 54 | 1012.4 |
| 20260506222401 | 84 | 293 | 1.0 | 5.0 | 0.00 | 0.00 | 0.00 | 54 | 1012.4 |
| 20260506222203 | 84 | 1 | 3.0 | 5.0 | 0.00 | 0.00 | 0.00 | 54 | 1012.5 |
| 20260506222101 | 84 | 298 | 1.0 | 5.0 | 0.00 | 0.00 | 0.00 | 53 | 1012.4 |
| 20260506222007 | 84 | 287 | 0.0 | 5.0 | 0.00 | 0.00 | 0.00 | 54 | 1012.4 |
| 20260506221902 | 84 | 273 | 0.0 | 5.0 | 0.00 | 0.00 | 0.00 | 53 | 1012.3 |
| 20260506221801 | 84 | 333 | 0.0 | 5.0 | 0.00 | 0.00 | 0.00 | 54 | 1012.2 |
| 20260506221602 | 84 | 333 | 4.0 | 5.0 | 0.00 | 0.00 | 0.00 | 53 | 1012.3 |
| 20260506221505 | 84 | 264 | 2.0 | 4.0 | 0.00 | 0.00 | 0.00 | 54 | 1012.3 |
| 20260506221402 | 84 | 286 | 3.0 | 5.0 | 0.00 | 0.00 | 0.00 | 53 | 1012.1 |
| 20260506221302 | 84 | 298 | 2.0 | 5.0 | 0.00 | 0.00 | 0.00 | 53 | 1012.1 |
| 20260506221201 | 84 | 240 | 3.0 | 5.0 | 0.00 | 0.00 | 0.00 | 53 | 1012.1 |
| 20260506221102 | 85 | 248 | 2.0 | 5.0 | 0.00 | 0.00 | 0.00 | 53 | 1012.0 |
| 20260506221006 | 85 | 281 | 2.0 | 5.0 | 0.00 | 0.00 | 0.00 | 53 | 1012.0 |
| 20260506220901 | 84 | 266 | 0.0 | 5.0 | 0.00 | 0.00 | 0.00 | 52 | 1012.0 |
| 20260506220802 | 84 | 319 | 0.0 | 5.0 | 0.00 | 0.00 | 0.00 | 52 | 1012.1 |
| 20260506220701 | 84 | 228 | 3.0 | 5.0 | 0.00 | 0.00 | 0.00 | 52 | 1012.0 |
| 20260506220505 | 84 | 248 | 1.0 | 5.0 | 0.00 | 0.00 | 0.00 | 53 | 1012.1 |
| 20260506220401 | 85 | 303 | 3.0 | 5.0 | 0.00 | 0.00 | 0.00 | 53 | 1012.0 |
| 20260506220007 | 84 | 236 | 2.0 | 5.0 | 0.00 | 0.00 | 0.00 | 53 | 1012.1 |
| 20260506215903 | 84 | 253 | 2.0 | 5.0 | 0.00 | 0.00 | 0.00 | 52 | 1012.2 |
| 20260506215803 | 84 | 177 | 2.0 | 4.0 | 0.00 | 0.00 | 0.00 | 52 | 1012.2 |
| 20260506215703 | 84 | 25 | 4.0 | 4.0 | 0.00 | 0.00 | 0.00 | 52 | 1012.2 |
| 20260506215602 | 84 | 238 | 0.0 | 4.0 | 0.00 | 0.00 | 0.00 | 52 | 1012.2 |
| 20260506215507 | 84 | 204 | 2.0 | 4.0 | 0.00 | 0.00 | 0.00 | 53 | 1012.1 |
| 20260506215404 | 84 | 256 | 3.0 | 4.0 | 0.00 | 0.00 | 0.00 | 52 | 1012.1 |
| 20260506215306 | 84 | 249 | 0.0 | 4.0 | 0.00 | 0.00 | 0.00 | 53 | 1012.1 |
| 20260506215202 | 84 | 284 | 2.0 | 4.0 | 0.00 | 0.00 | 0.00 | 53 | 1012.1 |
| 20260506215103 | 84 | 221 | 2.0 | 4.0 | 0.00 | 0.00 | 0.00 | 53 | 1012.2 |
| 20260506215006 | 84 | 269 | 1.0 | 4.0 | 0.00 | 0.00 | 0.00 | 52 | 1012.2 |
| 20260506214803 | 85 | 268 | 3.0 | 4.0 | 0.00 | 0.00 | 0.00 | 52 | 1012.2 |
| 20260506214702 | 85 | 243 | 0.0 | 3.0 | 0.00 | 0.00 | 0.00 | 52 | 1012.2 |
| 20260506214603 | 85 | 281 | 0.0 | 3.0 | 0.00 | 0.00 | 0.00 | 52 | 1012.2 |
| 20260506214506 | 85 | 272 | 1.0 | 3.0 | 0.00 | 0.00 | 0.00 | 52 | 1012.3 |
| 20260506214403 | 85 | 98 | 2.0 | 4.0 | 0.00 | 0.00 | 0.00 | 52 | 1012.3 |
| 20260506214302 | 85 | 307 | 3.0 | 4.0 | 0.00 | 0.00 | 0.00 | 51 | 1012.3 |
| 20260506214103 | 85 | 203 | 2.0 | 6.0 | 0.00 | 0.00 | 0.00 | 51 | 1012.5 |
| 20260506213903 | 85 | 314 | 2.0 | 6.0 | 0.00 | 0.00 | 0.00 | 51 | 1012.5 |
| 20260506213802 | 85 | 357 | 2.0 | 6.0 | 0.00 | 0.00 | 0.00 | 52 | 1012.6 |
| 20260506213703 | 85 | 124 | 0.0 | 6.0 | 0.00 | 0.00 | 0.00 | 52 | 1012.6 |
| 20260506213603 | 85 | 317 | 1.0 | 6.0 | 0.00 | 0.00 | 0.00 | 51 | 1012.7 |
| 20260506213402 | 86 | 237 | 1.0 | 6.0 | 0.00 | 0.00 | 0.00 | 51 | 1012.7 |
| 20260506213303 | 86 | 288 | 0.0 | 6.0 | 0.00 | 0.00 | 0.00 | 50 | 1012.7 |
| 20260506213203 | 86 | 15 | 4.0 | 5.0 | 0.00 | 0.00 | 0.00 | 50 | 1012.8 |
| 20260506213101 | 86 | 24 | 2.0 | 5.0 | 0.00 | 0.00 | 0.00 | 50 | 1012.8 |
| 20260506213006 | 86 | 349 | 0.0 | 7.0 | 0.00 | 0.00 | 0.00 | 50 | 1012.8 |
| 20260506212506 | 87 | 38 | 0.0 | 7.0 | 0.00 | 0.00 | 0.00 | 50 | 1012.7 |
| 20260506212402 | 86 | 1 | 0.0 | 7.0 | 0.00 | 0.00 | 0.00 | 50 | 1012.6 |
| 20260506212306 | 86 | 345 | 3.0 | 7.0 | 0.00 | 0.00 | 0.00 | 50 | 1012.6 |
| 20260506212202 | 86 | 1 | 2.0 | 9.0 | 0.00 | 0.00 | 0.00 | 50 | 1012.5 |
| 20260506212103 | 86 | 162 | 2.0 | 9.0 | 0.00 | 0.00 | 0.00 | 50 | 1012.5 |
| 20260506211901 | 86 | 118 | 0.0 | 9.0 | 0.00 | 0.00 | 0.00 | 51 | 1012.6 |
| 20260506211702 | 86 | 333 | 2.0 | 9.0 | 0.00 | 0.00 | 0.00 | 50 | 1012.7 |
| 20260506211602 | 86 | 48 | 2.0 | 9.0 | 0.00 | 0.00 | 0.00 | 49 | 1012.7 |
| 20260506211506 | 86 | 34 | 3.0 | 9.0 | 0.00 | 0.00 | 0.00 | 49 | 1012.7 |
| 20260506211402 | 87 | 88 | 7.0 | 9.0 | 0.00 | 0.00 | 0.00 | 49 | 1012.7 |
| 20260506211302 | 87 | 50 | 2.0 | 9.0 | 0.00 | 0.00 | 0.00 | 50 | 1012.8 |
| 20260506211103 | 87 | 255 | 2.0 | 6.0 | 0.00 | 0.00 | 0.00 | 50 | 1012.7 |
| 20260506211006 | 87 | 308 | 1.0 | 6.0 | 0.00 | 0.00 | 0.00 | 50 | 1012.7 |
| 20260506210902 | 87 | 3 | 2.0 | 6.0 | 0.00 | 0.00 | 0.00 | 50 | 1012.6 |
| 20260506210803 | 87 | 338 | 3.0 | 6.0 | 0.00 | 0.00 | 0.00 | 50 | 1012.7 |
| 20260506210703 | 87 | 313 | 2.0 | 5.0 | 0.00 | 0.00 | 0.00 | 50 | 1012.7 |
| 20260506210604 | 87 | 297 | 2.0 | 5.0 | 0.00 | 0.00 | 0.00 | 50 | 1012.8 |
| 20260506210303 | 87 | 104 | 0.0 | 5.0 | 0.00 | 0.00 | 0.00 | 50 | 1013.0 |
| 20260506210201 | 87 | 314 | 0.0 | 5.0 | 0.00 | 0.00 | 0.00 | 50 | 1013.0 |
| 20260506210006 | 87 | 309 | 0.0 | 5.0 | 0.00 | 0.00 | 0.00 | 50 | 1013.0 |
| 20260506205902 | 87 | 101 | 0.0 | 5.0 | 0.00 | 0.00 | 0.00 | 49 | 1013.1 |
| 20260506205601 | 87 | 15 | 1.0 | 5.0 | 0.00 | 0.00 | 0.00 | 50 | 1013.2 |
| 20260506205505 | 87 | 18 | 0.0 | 5.0 | 0.00 | 0.00 | 0.00 | 49 | 1013.2 |
| 20260506205401 | 87 | 128 | 3.0 | 5.0 | 0.00 | 0.00 | 0.00 | 48 | 1013.2 |
| 20260506205202 | 87 | 341 | 1.0 | 5.0 | 0.00 | 0.00 | 0.00 | 49 | 1013.1 |
| 20260506205102 | 87 | 111 | 3.0 | 5.0 | 0.00 | 0.00 | 0.00 | 50 | 1013.2 |
| 20260506205006 | 87 | 8 | 0.0 | 5.0 | 0.00 | 0.00 | 0.00 | 50 | 1013.2 |
| 20260506204902 | 87 | 343 | 3.0 | 5.0 | 0.00 | 0.00 | 0.00 | 50 | 1013.2 |
| 20260506204801 | 87 | 92 | 1.0 | 5.0 | 0.00 | 0.00 | 0.00 | 50 | 1013.2 |
| 20260506204702 | 87 | 351 | 1.0 | 5.0 | 0.00 | 0.00 | 0.00 | 52 | 1013.2 |
| 20260506204602 | 87 | 84 | 1.0 | 5.0 | 0.00 | 0.00 | 0.00 | 51 | 1013.2 |
| 20260506204506 | 87 | 357 | 2.0 | 5.0 | 0.00 | 0.00 | 0.00 | 50 | 1013.2 |
| 20260506204302 | 87 | 296 | 1.0 | 5.0 | 0.00 | 0.00 | 0.00 | 50 | 1013.2 |
| 20260506204202 | 87 | 11 | 4.0 | 5.0 | 0.00 | 0.00 | 0.00 | 51 | 1013.2 |
| 20260506204101 | 87 | 351 | 2.0 | 5.0 | 0.00 | 0.00 | 0.00 | 51 | 1013.2 |
| 20260506204006 | 87 | 326 | 0.0 | 5.0 | 0.00 | 0.00 | 0.00 | 51 | 1013.2 |
| 20260506203901 | 87 | 345 | 2.0 | 6.0 | 0.00 | 0.00 | 0.00 | 51 | 1013.2 |
| 20260506203801 | 86 | 39 | 0.0 | 6.0 | 0.00 | 0.00 | 0.00 | 50 | 1013.3 |
| 20260506203702 | 87 | 237 | 0.0 | 6.0 | 0.00 | 0.00 | 0.00 | 51 | 1013.2 |
| 20260506203602 | 87 | 128 | 0.0 | 6.0 | 0.00 | 0.00 | 0.00 | 50 | 1013.2 |
| 20260506203506 | 87 | 293 | 0.0 | 6.0 | 0.00 | 0.00 | 0.00 | 51 | 1013.2 |
| 20260506203402 | 87 | 303 | 0.0 | 6.0 | 0.00 | 0.00 | 0.00 | 50 | 1013.1 |
| 20260506203202 | 87 | 355 | 3.0 | 6.0 | 0.00 | 0.00 | 0.00 | 50 | 1013.1 |
| 20260506203101 | 87 | 231 | 2.0 | 6.0 | 0.00 | 0.00 | 0.00 | 50 | 1013.1 |
| 20260506203007 | 87 | 53 | 3.0 | 5.0 | 0.00 | 0.00 | 0.00 | 50 | 1013.2 |
| 20260506202902 | 87 | 125 | 3.0 | 6.0 | 0.00 | 0.00 | 0.00 | 50 | 1013.3 |
| 20260506202801 | 87 | 327 | 0.0 | 6.0 | 0.00 | 0.00 | 0.00 | 50 | 1013.3 |
| 20260506202702 | 87 | 151 | 0.0 | 6.0 | 0.00 | 0.00 | 0.00 | 50 | 1013.3 |
| 20260506202602 | 87 | 49 | 2.0 | 6.0 | 0.00 | 0.00 | 0.00 | 50 | 1013.3 |
| 20260506202506 | 88 | 85 | 3.0 | 6.0 | 0.00 | 0.00 | 0.00 | 50 | 1013.2 |
| 20260506202402 | 87 | 110 | 3.0 | 6.0 | 0.00 | 0.00 | 0.00 | 50 | 1013.3 |
| 20260506202203 | 87 | 82 | 0.0 | 6.0 | 0.00 | 0.00 | 0.00 | 49 | 1013.4 |
| 20260506202102 | 88 | 33 | 2.0 | 6.0 | 0.00 | 0.00 | 0.00 | 49 | 1013.4 |
| 20260506202005 | 88 | 118 | 5.0 | 5.0 | 0.00 | 0.00 | 0.00 | 50 | 1013.4 |
| 20260506201701 | 88 | 77 | 2.0 | 5.0 | 0.00 | 0.00 | 0.00 | 50 | 1013.6 |
| 20260506201602 | 88 | 34 | 1.0 | 5.0 | 0.00 | 0.00 | 0.00 | 50 | 1013.6 |
| 20260506201506 | 88 | 122 | 3.0 | 5.0 | 0.00 | 0.00 | 0.00 | 51 | 1013.6 |
| 20260506201401 | 87 | 10 | 3.0 | 5.0 | 0.00 | 0.00 | 0.00 | 49 | 1013.6 |
| 20260506201301 | 87 | 61 | 2.0 | 5.0 | 0.00 | 0.00 | 0.00 | 50 | 1013.6 |
| 20260506201201 | 88 | 59 | 2.0 | 5.0 | 0.00 | 0.00 | 0.00 | 50 | 1013.6 |
| 20260506201101 | 88 | 334 | 5.0 | 5.0 | 0.00 | 0.00 | 0.00 | 52 | 1013.7 |
| 20260506201005 | 88 | 325 | 0.0 | 5.0 | 0.00 | 0.00 | 0.00 | 51 | 1013.7 |
| 20260506200902 | 88 | 41 | 0.0 | 5.0 | 0.00 | 0.00 | 0.00 | 50 | 1013.6 |
| 20260506200701 | 88 | 149 | 0.0 | 5.0 | 0.00 | 0.00 | 0.00 | 50 | 1013.7 |
| 20260506200601 | 88 | 219 | 0.0 | 5.0 | 0.00 | 0.00 | 0.00 | 52 | 1013.8 |
| 20260506200505 | 87 | 302 | 0.0 | 5.0 | 0.00 | 0.00 | 0.00 | 52 | 1013.8 |
| 20260506200401 | 87 | 350 | 3.0 | 5.0 | 0.00 | 0.00 | 0.00 | 52 | 1013.8 |
| 20260506200301 | 87 | 308 | 0.0 | 4.0 | 0.00 | 0.00 | 0.00 | 52 | 1013.8 |
| 20260506200201 | 87 | 316 | 3.0 | 4.0 | 0.00 | 0.00 | 0.00 | 52 | 1013.8 |
| 20260506200006 | 86 | 148 | 3.0 | 4.0 | 0.00 | 0.00 | 0.00 | 52 | 1013.9 |
| 20260506195802 | 86 | 287 | 0.0 | 4.0 | 0.00 | 0.00 | 0.00 | 52 | 1014.0 |
| 20260506195702 | 86 | 311 | 0.0 | 4.0 | 0.00 | 0.00 | 0.00 | 52 | 1014.0 |
| 20260506195601 | 86 | 338 | 1.0 | 5.0 | 0.00 | 0.00 | 0.00 | 52 | 1014.0 |
| 20260506195506 | 86 | 235 | 0.0 | 5.0 | 0.00 | 0.00 | 0.00 | 52 | 1014.0 |
| 20260506195301 | 86 | 24 | 0.0 | 5.0 | 0.00 | 0.00 | 0.00 | 53 | 1014.2 |
| 20260506195101 | 86 | 338 | 2.0 | 5.0 | 0.00 | 0.00 | 0.00 | 52 | 1014.1 |
| 20260506194902 | 86 | 37 | 1.0 | 5.0 | 0.00 | 0.00 | 0.00 | 53 | 1014.1 |
| 20260506194802 | 86 | 15 | 3.0 | 5.0 | 0.00 | 0.00 | 0.00 | 52 | 1014.0 |
| 20260506194505 | 87 | 299 | 2.0 | 6.0 | 0.00 | 0.00 | 0.00 | 51 | 1014.2 |
| 20260506194402 | 87 | 348 | 3.0 | 6.0 | 0.00 | 0.00 | 0.00 | 52 | 1014.1 |
| 20260506194302 | 87 | 328 | 0.0 | 6.0 | 0.00 | 0.00 | 0.00 | 51 | 1014.1 |
| 20260506194202 | 87 | 353 | 4.0 | 6.0 | 0.00 | 0.00 | 0.00 | 50 | 1014.2 |
| 20260506194102 | 87 | 321 | 4.0 | 6.0 | 0.00 | 0.00 | 0.00 | 51 | 1014.2 |
| 20260506193901 | 88 | 3 | 3.0 | 6.0 | 0.00 | 0.00 | 0.00 | 50 | 1014.3 |
| 20260506193801 | 88 | 8 | 4.0 | 6.0 | 0.00 | 0.00 | 0.00 | 49 | 1014.4 |
| 20260506193701 | 89 | 338 | 4.0 | 6.0 | 0.00 | 0.00 | 0.00 | 49 | 1014.3 |
| 20260506193602 | 89 | 349 | 1.0 | 6.0 | 0.00 | 0.00 | 0.00 | 50 | 1014.3 |
| 20260506193505 | 89 | 121 | 3.0 | 6.0 | 0.00 | 0.00 | 0.00 | 50 | 1014.4 |
| 20260506193301 | 89 | 320 | 3.0 | 6.0 | 0.00 | 0.00 | 0.00 | 50 | 1014.5 |
| 20260506193201 | 89 | 322 | 3.0 | 5.0 | 0.00 | 0.00 | 0.00 | 50 | 1014.5 |
| 20260506193101 | 89 | 355 | 5.0 | 5.0 | 0.00 | 0.00 | 0.00 | 50 | 1014.6 |
| 20260506193006 | 88 | 33 | 3.0 | 5.0 | 0.00 | 0.00 | 0.00 | 50 | 1014.6 |
| 20260506192901 | 88 | 329 | 2.0 | 5.0 | 0.00 | 0.00 | 0.00 | 51 | 1014.6 |
| 20260506192507 | 87 | 349 | 1.0 | 6.0 | 0.00 | 0.00 | 0.00 | 52 | 1014.6 |
| 20260506192402 | 87 | 340 | 4.0 | 6.0 | 0.00 | 0.00 | 0.00 | 53 | 1014.6 |
| 20260506192305 | 87 | 108 | 2.0 | 6.0 | 0.00 | 0.00 | 0.00 | 54 | 1014.7 |
| 20260506192006 | 86 | 341 | 2.0 | 6.0 | 0.00 | 0.00 | 0.00 | 54 | 1014.7 |
| 20260506191902 | 85 | 335 | 3.0 | 6.0 | 0.00 | 0.00 | 0.00 | 55 | 1014.7 |
| 20260506191801 | 85 | 320 | 3.0 | 6.0 | 0.00 | 0.00 | 0.00 | 54 | 1014.6 |
| 20260506191601 | 85 | 332 | 4.0 | 6.0 | 0.00 | 0.00 | 0.00 | 55 | 1014.8 |
| 20260506191506 | 85 | 317 | 2.0 | 6.0 | 0.00 | 0.00 | 0.00 | 55 | 1014.8 |
| 20260506191401 | 85 | 329 | 3.0 | 6.0 | 0.00 | 0.00 | 0.00 | 54 | 1014.8 |
| 20260506191301 | 85 | 331 | 5.0 | 6.0 | 0.00 | 0.00 | 0.00 | 53 | 1014.9 |
| 20260506191202 | 86 | 330 | 3.0 | 6.0 | 0.00 | 0.00 | 0.00 | 53 | 1014.9 |
| 20260506191006 | 86 | 17 | 4.0 | 6.0 | 0.00 | 0.00 | 0.00 | 54 | 1014.8 |
| 20260506190901 | 86 | 88 | 0.0 | 6.0 | 0.00 | 0.00 | 0.00 | 53 | 1014.8 |
| 20260506190601 | 86 | 351 | 0.0 | 5.0 | 0.00 | 0.00 | 0.00 | 53 | 1015.0 |
| 20260506190401 | 86 | 280 | 3.0 | 5.0 | 0.00 | 0.00 | 0.00 | 53 | 1015.0 |
| 20260506190201 | 86 | 74 | 3.0 | 5.0 | 0.00 | 0.00 | 0.00 | 53 | 1015.0 |
| 20260506190007 | 86 | 354 | 2.0 | 5.0 | 0.00 | 0.00 | 0.00 | 53 | 1015.0 |
| 20260506185801 | 86 | 334 | 3.0 | 6.0 | 0.00 | 0.00 | 0.00 | 52 | 1015.0 |
| 20260506185701 | 86 | 29 | 3.0 | 6.0 | 0.00 | 0.00 | 0.00 | 51 | 1015.0 |
| 20260506185601 | 86 | 23 | 2.0 | 6.0 | 0.00 | 0.00 | 0.00 | 52 | 1015.0 |
| 20260506185505 | 86 | 182 | 1.0 | 6.0 | 0.00 | 0.00 | 0.00 | 53 | 1015.0 |
| 20260506185402 | 86 | 13 | 1.0 | 6.0 | 0.00 | 0.00 | 0.00 | 52 | 1015.1 |
| 20260506185301 | 87 | 280 | 2.0 | 6.0 | 0.00 | 0.00 | 0.00 | 54 | 1015.1 |
| 20260506185202 | 86 | 310 | 2.0 | 6.0 | 0.00 | 0.00 | 0.00 | 55 | 1015.0 |
| 20260506185005 | 86 | 322 | 3.0 | 6.0 | 0.00 | 0.00 | 0.00 | 53 | 1015.2 |
| 20260506184901 | 86 | 298 | 0.0 | 6.0 | 0.00 | 0.00 | 0.00 | 53 | 1015.2 |
| 20260506184801 | 87 | 308 | 2.0 | 6.0 | 0.00 | 0.00 | 0.00 | 53 | 1015.1 |
| 20260506184702 | 87 | 356 | 0.0 | 6.0 | 0.00 | 0.00 | 0.00 | 52 | 1015.2 |
| 20260506184505 | 88 | 336 | 4.0 | 6.0 | 0.00 | 0.00 | 0.00 | 51 | 1015.0 |
| 20260506184401 | 88 | 312 | 0.0 | 6.0 | 0.00 | 0.00 | 0.00 | 52 | 1015.2 |
| 20260506184302 | 88 | 131 | 0.0 | 6.0 | 0.00 | 0.00 | 0.00 | 52 | 1015.3 |
| 20260506184102 | 87 | 22 | 3.0 | 6.0 | 0.00 | 0.00 | 0.00 | 53 | 1015.1 |
| 20260506184007 | 86 | 15 | 4.0 | 5.0 | 0.00 | 0.00 | 0.00 | 55 | 1015.1 |
| 20260506183902 | 86 | 348 | 3.0 | 5.0 | 0.00 | 0.00 | 0.00 | 53 | 1015.2 |
| 20260506183801 | 86 | 329 | 2.0 | 5.0 | 0.00 | 0.00 | 0.00 | 52 | 1015.2 |
| 20260506183701 | 86 | 319 | 5.0 | 5.0 | 0.00 | 0.00 | 0.00 | 54 | 1015.2 |
| 20260506183601 | 86 | 318 | 3.0 | 5.0 | 0.00 | 0.00 | 0.00 | 55 | 1015.2 |
| 20260506183505 | 86 | 352 | 4.0 | 5.0 | 0.00 | 0.00 | 0.00 | 53 | 1015.3 |
| 20260506183402 | 86 | 321 | 0.0 | 5.0 | 0.00 | 0.00 | 0.00 | 55 | 1015.3 |
| 20260506183302 | 85 | 287 | 2.0 | 5.0 | 0.00 | 0.00 | 0.00 | 55 | 1015.2 |
| 20260506183102 | 86 | 1 | 3.0 | 5.0 | 0.00 | 0.00 | 0.00 | 55 | 1015.3 |
| 20260506183006 | 85 | 247 | 0.0 | 5.0 | 0.00 | 0.00 | 0.00 | 55 | 1015.3 |
| 20260506182901 | 85 | 336 | 0.0 | 5.0 | 0.00 | 0.00 | 0.00 | 55 | 1015.3 |
| 20260506182801 | 85 | 5 | 1.0 | 5.0 | 0.00 | 0.00 | 0.00 | 55 | 1015.3 |
| 20260506182701 | 85 | 354 | 3.0 | 4.0 | 0.00 | 0.00 | 0.00 | 55 | 1015.4 |
| 20260506182602 | 84 | 324 | 3.0 | 4.0 | 0.00 | 0.00 | 0.00 | 57 | 1015.3 |
| 20260506182505 | 83 | 320 | 0.0 | 4.0 | 0.00 | 0.00 | 0.00 | 57 | 1015.4 |
| 20260506182402 | 83 | 174 | 0.0 | 4.0 | 0.00 | 0.00 | 0.00 | 56 | 1015.3 |
| 20260506182301 | 83 | 135 | 1.0 | 4.0 | 0.00 | 0.00 | 0.00 | 56 | 1015.4 |
| 20260506182202 | 83 | 356 | 2.0 | 5.0 | 0.00 | 0.00 | 0.00 | 55 | 1015.4 |
| 20260506182101 | 84 | 315 | 3.0 | 5.0 | 0.00 | 0.00 | 0.00 | 55 | 1015.4 |
| 20260506181901 | 84 | 356 | 0.0 | 5.0 | 0.00 | 0.00 | 0.00 | 54 | 1015.3 |
| 20260506181802 | 85 | 103 | 0.0 | 5.0 | 0.00 | 0.00 | 0.00 | 55 | 1015.3 |
| 20260506181701 | 85 | 41 | 0.0 | 5.0 | 0.00 | 0.00 | 0.00 | 56 | 1015.4 |
| 20260506181506 | 84 | 20 | 0.0 | 5.0 | 0.00 | 0.00 | 0.00 | 55 | 1015.3 |
| 20260506181403 | 84 | 120 | 0.0 | 6.0 | 0.00 | 0.00 | 0.00 | 54 | 1015.4 |
| 20260506181301 | 85 | 328 | 3.0 | 6.0 | 0.00 | 0.00 | 0.00 | 53 | 1015.4 |
| 20260506181202 | 85 | 332 | 1.0 | 6.0 | 0.00 | 0.00 | 0.00 | 53 | 1015.4 |
| 20260506181100 | 85 | 302 | 1.0 | 6.0 | 0.00 | 0.00 | 0.00 | 54 | 1015.4 |
| 20260506181006 | 85 | 303 | 2.0 | 6.0 | 0.00 | 0.00 | 0.00 | 54 | 1015.4 |
| 20260506180901 | 85 | 4 | 4.0 | 8.0 | 0.00 | 0.00 | 0.00 | 54 | 1015.5 |
| 20260506180701 | 84 | 336 | 1.0 | 8.0 | 0.00 | 0.00 | 0.00 | 55 | 1015.5 |
| 20260506180601 | 84 | 328 | 3.0 | 8.0 | 0.00 | 0.00 | 0.00 | 55 | 1015.4 |
| 20260506180301 | 84 | 284 | 2.0 | 8.0 | 0.00 | 0.00 | 0.00 | 56 | 1015.5 |
| 20260506180007 | 85 | 303 | 5.0 | 8.0 | 0.00 | 0.00 | 0.00 | 53 | 1015.5 |
| 20260506175902 | 85 | 3 | 3.0 | 7.0 | 0.00 | 0.00 | 0.00 | 54 | 1015.5 |
| 20260506175802 | 85 | 327 | 4.0 | 7.0 | 0.00 | 0.00 | 0.00 | 53 | 1015.5 |
| 20260506175702 | 85 | 347 | 4.0 | 7.0 | 0.00 | 0.00 | 0.00 | 52 | 1015.5 |
| 20260506175506 | 86 | 320 | 3.0 | 7.0 | 0.00 | 0.00 | 0.00 | 55 | 1015.6 |
| 20260506175401 | 85 | 330 | 3.0 | 7.0 | 0.00 | 0.00 | 0.00 | 56 | 1015.6 |
| 20260506175301 | 85 | 347 | 2.0 | 7.0 | 0.00 | 0.00 | 0.00 | 55 | 1015.5 |
| 20260506175201 | 85 | 328 | 3.0 | 7.0 | 0.00 | 0.00 | 0.00 | 53 | 1015.5 |
| 20260506175100 | 85 | 350 | 3.0 | 7.0 | 0.00 | 0.00 | 0.00 | 54 | 1015.5 |
| 20260506175006 | 85 | 306 | 3.0 | 6.0 | 0.00 | 0.00 | 0.00 | 52 | 1015.5 |
| 20260506174701 | 84 | 347 | 2.0 | 5.0 | 0.00 | 0.00 | 0.00 | 54 | 1015.5 |
| 20260506174505 | 84 | 320 | 2.0 | 4.0 | 0.00 | 0.00 | 0.00 | 52 | 1015.6 |
| 20260506174401 | 85 | 4 | 3.0 | 6.0 | 0.00 | 0.00 | 0.00 | 51 | 1015.7 |
| 20260506174301 | 85 | 66 | 2.0 | 6.0 | 0.00 | 0.00 | 0.00 | 54 | 1015.6 |
| 20260506174201 | 85 | 343 | 2.0 | 8.0 | 0.00 | 0.00 | 0.00 | 54 | 1015.7 |
| 20260506174101 | 85 | 280 | 2.0 | 8.0 | 0.00 | 0.00 | 0.00 | 54 | 1015.6 |
| 20260506174006 | 84 | 265 | 0.0 | 8.0 | 0.00 | 0.00 | 0.00 | 56 | 1015.6 |
| 20260506173801 | 83 | 341 | 3.0 | 8.0 | 0.00 | 0.00 | 0.00 | 55 | 1015.7 |
| 20260506173702 | 83 | 23 | 3.0 | 8.0 | 0.00 | 0.00 | 0.00 | 55 | 1015.7 |
| 20260506173601 | 84 | 317 | 3.0 | 8.0 | 0.00 | 0.00 | 0.00 | 54 | 1015.8 |
| 20260506173505 | 84 | 341 | 4.0 | 8.0 | 0.00 | 0.00 | 0.00 | 53 | 1015.8 |
| 20260506173401 | 84 | 304 | 6.0 | 8.0 | 0.00 | 0.00 | 0.00 | 54 | 1015.8 |
| 20260506173300 | 84 | 315 | 3.0 | 6.0 | 0.00 | 0.00 | 0.00 | 54 | 1015.8 |
| 20260506173202 | 84 | 340 | 2.0 | 6.0 | 0.00 | 0.00 | 0.00 | 55 | 1015.8 |
| 20260506173101 | 84 | 315 | 3.0 | 6.0 | 0.00 | 0.00 | 0.00 | 55 | 1015.9 |
| 20260506173006 | 84 | 360 | 0.0 | 6.0 | 0.00 | 0.00 | 0.00 | 54 | 1015.9 |
| 20260506172901 | 84 | 342 | 3.0 | 6.0 | 0.00 | 0.00 | 0.00 | 56 | 1015.9 |
| 20260506172801 | 84 | 320 | 3.0 | 6.0 | 0.00 | 0.00 | 0.00 | 55 | 1015.8 |
| 20260506172701 | 83 | 328 | 4.0 | 6.0 | 0.00 | 0.00 | 0.00 | 55 | 1015.9 |
| 20260506172505 | 83 | 317 | 3.0 | 6.0 | 0.00 | 0.00 | 0.00 | 54 | 1016.0 |
| 20260506172401 | 83 | 345 | 4.0 | 6.0 | 0.00 | 0.00 | 0.00 | 55 | 1016.0 |
| 20260506172305 | 84 | 312 | 2.0 | 6.0 | 0.00 | 0.00 | 0.00 | 54 | 1015.9 |
| 20260506172202 | 84 | 318 | 4.0 | 6.0 | 0.00 | 0.00 | 0.00 | 54 | 1016.0 |
| 20260506172101 | 84 | 334 | 4.0 | 6.0 | 0.00 | 0.00 | 0.00 | 55 | 1016.0 |
| 20260506172006 | 84 | 345 | 0.0 | 6.0 | 0.00 | 0.00 | 0.00 | 54 | 1016.0 |
| 20260506171901 | 84 | 316 | 3.0 | 6.0 | 0.00 | 0.00 | 0.00 | 56 | 1016.1 |
| 20260506171801 | 84 | 355 | 2.0 | 6.0 | 0.00 | 0.00 | 0.00 | 55 | 1016.0 |
| 20260506171702 | 84 | 328 | 2.0 | 6.0 | 0.00 | 0.00 | 0.00 | 53 | 1016.1 |
| 20260506171601 | 84 | 345 | 3.0 | 6.0 | 0.00 | 0.00 | 0.00 | 53 | 1016.1 |
| 20260506171506 | 84 | 360 | 6.0 | 6.0 | 0.00 | 0.00 | 0.00 | 53 | 1016.1 |
| 20260506171301 | 83 | 358 | 4.0 | 5.0 | 0.00 | 0.00 | 0.00 | 54 | 1016.2 |
| 20260506171201 | 82 | 336 | 3.0 | 5.0 | 0.00 | 0.00 | 0.00 | 54 | 1016.2 |
| 20260506171101 | 82 | 13 | 1.0 | 5.0 | 0.00 | 0.00 | 0.00 | 55 | 1016.3 |
| 20260506171006 | 82 | 335 | 3.0 | 5.0 | 0.00 | 0.00 | 0.00 | 55 | 1016.2 |
| 20260506170901 | 82 | 316 | 4.0 | 5.0 | 0.00 | 0.00 | 0.00 | 54 | 1016.2 |
| 20260506170801 | 83 | 324 | 4.0 | 5.0 | 0.00 | 0.00 | 0.00 | 54 | 1016.3 |
| 20260506170601 | 83 | 329 | 2.0 | 5.0 | 0.00 | 0.00 | 0.00 | 52 | 1016.2 |
| 20260506170506 | 83 | 352 | 1.0 | 5.0 | 0.00 | 0.00 | 0.00 | 52 | 1016.2 |
| 20260506170401 | 83 | 114 | 4.0 | 5.0 | 0.00 | 0.00 | 0.00 | 55 | 1016.2 |
| 20260506170201 | 82 | 301 | 2.0 | 7.0 | 0.00 | 0.00 | 0.00 | 55 | 1016.3 |
| 20260506170006 | 82 | 26 | 3.0 | 7.0 | 0.00 | 0.00 | 0.00 | 55 | 1016.3 |
| 20260506165902 | 82 | 311 | 3.0 | 7.0 | 0.00 | 0.00 | 0.00 | 57 | 1016.3 |
| 20260506165803 | 82 | 308 | 2.0 | 7.0 | 0.00 | 0.00 | 0.00 | 56 | 1016.3 |
| 20260506165702 | 81 | 327 | 2.0 | 7.0 | 0.00 | 0.00 | 0.00 | 55 | 1016.4 |
| 20260506165602 | 82 | 18 | 5.0 | 7.0 | 0.00 | 0.00 | 0.00 | 56 | 1016.4 |
| 20260506165505 | 82 | 321 | 4.0 | 7.0 | 0.00 | 0.00 | 0.00 | 56 | 1016.5 |
| 20260506165402 | 82 | 1 | 5.0 | 7.0 | 0.00 | 0.00 | 0.00 | 56 | 1016.5 |
| 20260506165305 | 81 | 335 | 2.0 | 6.0 | 0.00 | 0.00 | 0.00 | 56 | 1016.5 |
| 20260506165202 | 81 | 280 | 3.0 | 6.0 | 0.00 | 0.00 | 0.00 | 56 | 1016.5 |
| 20260506165102 | 81 | 322 | 1.0 | 8.0 | 0.00 | 0.00 | 0.00 | 57 | 1016.5 |
| 20260506165006 | 81 | 321 | 4.0 | 8.0 | 0.00 | 0.00 | 0.00 | 56 | 1016.5 |
| 20260506164901 | 81 | 312 | 2.0 | 8.0 | 0.00 | 0.00 | 0.00 | 56 | 1016.5 |
| 20260506164802 | 81 | 314 | 4.0 | 8.0 | 0.00 | 0.00 | 0.00 | 56 | 1016.5 |
| 20260506164702 | 81 | 272 | 5.0 | 8.0 | 0.00 | 0.00 | 0.00 | 57 | 1016.5 |
| 20260506164603 | 81 | 321 | 2.0 | 8.0 | 0.00 | 0.00 | 0.00 | 56 | 1016.5 |
| 20260506164506 | 81 | 326 | 2.0 | 8.0 | 0.00 | 0.00 | 0.00 | 56 | 1016.5 |
| 20260506164403 | 81 | 308 | 4.0 | 8.0 | 0.00 | 0.00 | 0.00 | 55 | 1016.6 |
| 20260506164303 | 82 | 302 | 4.0 | 8.0 | 0.00 | 0.00 | 0.00 | 56 | 1016.5 |
| 20260506164201 | 82 | 303 | 3.0 | 6.0 | 0.00 | 0.00 | 0.00 | 57 | 1016.6 |
| 20260506164102 | 81 | 319 | 2.0 | 6.0 | 0.00 | 0.00 | 0.00 | 57 | 1016.4 |
| 20260506164006 | 81 | 352 | 4.0 | 6.0 | 0.00 | 0.00 | 0.00 | 59 | 1016.4 |
| 20260506163902 | 81 | 319 | 1.0 | 6.0 | 0.00 | 0.00 | 0.00 | 58 | 1016.6 |
| 20260506163802 | 81 | 335 | 2.0 | 6.0 | 0.00 | 0.00 | 0.00 | 58 | 1016.5 |
| 20260506163703 | 81 | 326 | 3.0 | 6.0 | 0.00 | 0.00 | 0.00 | 58 | 1016.5 |
| 20260506163602 | 81 | 324 | 2.0 | 6.0 | 0.00 | 0.00 | 0.00 | 57 | 1016.5 |
| 20260506163505 | 82 | 309 | 4.0 | 6.0 | 0.00 | 0.00 | 0.00 | 57 | 1016.5 |
| 20260506163302 | 82 | 282 | 3.0 | 5.0 | 0.00 | 0.00 | 0.00 | 58 | 1016.5 |
| 20260506163201 | 82 | 310 | 0.0 | 5.0 | 0.00 | 0.00 | 0.00 | 57 | 1016.5 |
| 20260506163102 | 82 | 340 | 0.0 | 5.0 | 0.00 | 0.00 | 0.00 | 56 | 1016.6 |
| 20260506163006 | 82 | 233 | 2.0 | 5.0 | 0.00 | 0.00 | 0.00 | 58 | 1016.6 |
| 20260506162903 | 82 | 345 | 1.0 | 5.0 | 0.00 | 0.00 | 0.00 | 56 | 1016.5 |
| 20260506162803 | 82 | 357 | 1.0 | 5.0 | 0.00 | 0.00 | 0.00 | 57 | 1016.6 |
| 20260506162602 | 82 | 133 | 2.0 | 5.0 | 0.00 | 0.00 | 0.00 | 56 | 1016.7 |
| 20260506162506 | 82 | 346 | 2.0 | 5.0 | 0.00 | 0.00 | 0.00 | 58 | 1016.7 |
| 20260506162403 | 82 | 277 | 0.0 | 5.0 | 0.00 | 0.00 | 0.00 | 58 | 1016.6 |
| 20260506162306 | 82 | 252 | 2.0 | 5.0 | 0.00 | 0.00 | 0.00 | 58 | 1016.7 |
| 20260506162202 | 81 | 277 | 0.0 | 5.0 | 0.00 | 0.00 | 0.00 | 60 | 1016.7 |
| 20260506162103 | 81 | 325 | 3.0 | 5.0 | 0.00 | 0.00 | 0.00 | 59 | 1016.8 |
| 20260506162006 | 81 | 272 | 4.0 | 5.0 | 0.00 | 0.00 | 0.00 | 60 | 1016.8 |
| 20260506161901 | 81 | 312 | 4.0 | 6.0 | 0.00 | 0.00 | 0.00 | 60 | 1016.7 |
| 20260506161801 | 81 | 313 | 4.0 | 6.0 | 0.00 | 0.00 | 0.00 | 61 | 1016.7 |
| 20260506161702 | 80 | 316 | 3.0 | 6.0 | 0.00 | 0.00 | 0.00 | 61 | 1016.7 |
| 20260506161602 | 80 | 317 | 4.0 | 6.0 | 0.00 | 0.00 | 0.00 | 61 | 1016.7 |
| 20260506161505 | 80 | 314 | 3.0 | 6.0 | 0.00 | 0.00 | 0.00 | 60 | 1016.7 |
| 20260506161403 | 80 | 304 | 2.0 | 6.0 | 0.00 | 0.00 | 0.00 | 61 | 1016.7 |
| 20260506161303 | 80 | 287 | 2.0 | 6.0 | 0.00 | 0.00 | 0.00 | 61 | 1016.7 |
| 20260506161202 | 80 | 269 | 1.0 | 6.0 | 0.00 | 0.00 | 0.00 | 62 | 1016.7 |
| 20260506161103 | 80 | 307 | 3.0 | 6.0 | 0.00 | 0.00 | 0.00 | 61 | 1016.7 |
| 20260506160903 | 80 | 303 | 3.0 | 6.0 | 0.00 | 0.00 | 0.00 | 62 | 1016.7 |
| 20260506160802 | 80 | 345 | 2.0 | 6.0 | 0.00 | 0.00 | 0.00 | 60 | 1016.7 |
| 20260506160701 | 80 | 339 | 4.0 | 6.0 | 0.00 | 0.00 | 0.00 | 60 | 1016.8 |
| 20260506160602 | 80 | 312 | 4.0 | 6.0 | 0.00 | 0.00 | 0.00 | 62 | 1016.8 |
| 20260506160506 | 80 | 287 | 3.0 | 6.0 | 0.00 | 0.00 | 0.00 | 61 | 1016.8 |
| 20260506160402 | 80 | 301 | 1.0 | 6.0 | 0.00 | 0.00 | 0.00 | 61 | 1016.8 |
| 20260506160303 | 80 | 317 | 3.0 | 6.0 | 0.00 | 0.00 | 0.00 | 61 | 1016.7 |
| 20260506160201 | 80 | 303 | 3.0 | 5.0 | 0.00 | 0.00 | 0.00 | 62 | 1016.8 |
| 20260506160008 | 79 | 285 | 3.0 | 5.0 | 0.00 | 0.00 | 0.00 | 63 | 1016.8 |
| 20260506155901 | 79 | 338 | 3.0 | 5.0 | 0.00 | 0.00 | 0.00 | 63 | 1016.9 |
| 20260506155801 | 79 | 309 | 3.0 | 5.0 | 0.00 | 0.00 | 0.00 | 63 | 1016.8 |
| 20260506155506 | 79 | 326 | 3.0 | 5.0 | 0.00 | 0.00 | 0.00 | 62 | 1016.9 |
| 20260506155401 | 79 | 313 | 5.0 | 5.0 | 0.00 | 0.00 | 0.00 | 63 | 1016.9 |
| 20260506155305 | 79 | 312 | 3.0 | 5.0 | 0.00 | 0.00 | 0.00 | 63 | 1016.9 |
| 20260506155101 | 78 | 282 | 2.0 | 6.0 | 0.00 | 0.00 | 0.00 | 63 | 1016.8 |
| 20260506155006 | 78 | 299 | 4.0 | 6.0 | 0.00 | 0.00 | 0.00 | 64 | 1016.8 |
| 20260506154902 | 78 | 301 | 4.0 | 6.0 | 0.00 | 0.00 | 0.00 | 64 | 1016.8 |
| 20260506154802 | 78 | 310 | 3.0 | 6.0 | 0.00 | 0.00 | 0.00 | 64 | 1016.8 |
| 20260506154702 | 78 | 309 | 3.0 | 6.0 | 0.00 | 0.00 | 0.00 | 65 | 1016.8 |
| 20260506154505 | 78 | 324 | 0.0 | 6.0 | 0.00 | 0.00 | 0.00 | 65 | 1016.8 |
| 20260506154301 | 78 | 293 | 4.0 | 6.0 | 0.00 | 0.00 | 0.00 | 65 | 1016.7 |
| 20260506154101 | 78 | 308 | 3.0 | 6.0 | 0.00 | 0.00 | 0.00 | 66 | 1016.7 |
| 20260506154006 | 78 | 288 | 2.0 | 6.0 | 0.00 | 0.00 | 0.00 | 65 | 1016.7 |
| 20260506153901 | 78 | 322 | 2.0 | 6.0 | 0.00 | 0.00 | 0.00 | 66 | 1016.7 |
| 20260506153802 | 78 | 324 | 3.0 | 6.0 | 0.00 | 0.00 | 0.00 | 66 | 1016.7 |
| 20260506153701 | 78 | 312 | 3.0 | 6.0 | 0.00 | 0.00 | 0.00 | 66 | 1016.7 |
| 20260506153601 | 78 | 311 | 2.0 | 6.0 | 0.00 | 0.00 | 0.00 | 66 | 1016.7 |
| 20260506153401 | 78 | 306 | 3.0 | 6.0 | 0.00 | 0.00 | 0.00 | 65 | 1016.8 |
| 20260506153301 | 78 | 315 | 4.0 | 6.0 | 0.00 | 0.00 | 0.00 | 65 | 1016.7 |
| 20260506153201 | 78 | 310 | 2.0 | 6.0 | 0.00 | 0.00 | 0.00 | 64 | 1016.7 |
| 20260506153102 | 79 | 303 | 1.0 | 6.0 | 0.00 | 0.00 | 0.00 | 64 | 1016.8 |
| 20260506153006 | 79 | 301 | 3.0 | 6.0 | 0.00 | 0.00 | 0.00 | 64 | 1016.7 |
| 20260506152901 | 79 | 271 | 6.0 | 6.0 | 0.00 | 0.00 | 0.00 | 65 | 1016.6 |
| 20260506152801 | 79 | 316 | 4.0 | 4.0 | 0.00 | 0.00 | 0.00 | 65 | 1016.6 |
| 20260506152701 | 79 | 336 | 2.0 | 4.0 | 0.00 | 0.00 | 0.00 | 65 | 1016.7 |
| 20260506152602 | 79 | 332 | 2.0 | 4.0 | 0.00 | 0.00 | 0.00 | 66 | 1016.7 |
| 20260506152506 | 79 | 318 | 3.0 | 4.0 | 0.00 | 0.00 | 0.00 | 65 | 1016.7 |
| 20260506152400 | 79 | 314 | 3.0 | 4.0 | 0.00 | 0.00 | 0.00 | 65 | 1016.7 |
| 20260506152201 | 79 | 307 | 3.0 | 5.0 | 0.00 | 0.00 | 0.00 | 66 | 1016.7 |
| 20260506152101 | 78 | 295 | 3.0 | 5.0 | 0.00 | 0.00 | 0.00 | 64 | 1016.6 |
| 20260506152007 | 79 | 130 | 3.0 | 5.0 | 0.00 | 0.00 | 0.00 | 65 | 1016.6 |
| 20260506151801 | 78 | 233 | 0.0 | 5.0 | 0.00 | 0.00 | 0.00 | 65 | 1016.5 |
| 20260506151701 | 78 | 309 | 3.0 | 5.0 | 0.00 | 0.00 | 0.00 | 65 | 1016.4 |
| 20260506151600 | 78 | 12 | 1.0 | 5.0 | 0.00 | 0.00 | 0.00 | 65 | 1016.4 |
| 20260506151401 | 78 | 303 | 3.0 | 5.0 | 0.00 | 0.00 | 0.00 | 66 | 1016.5 |
| 20260506151302 | 78 | 313 | 3.0 | 5.0 | 0.00 | 0.00 | 0.00 | 66 | 1016.4 |
| 20260506151101 | 78 | 324 | 3.0 | 5.0 | 0.00 | 0.00 | 0.00 | 66 | 1016.5 |
| 20260506151006 | 78 | 312 | 3.0 | 5.0 | 0.00 | 0.00 | 0.00 | 65 | 1016.5 |
| 20260506150901 | 79 | 321 | 3.0 | 5.0 | 0.00 | 0.00 | 0.00 | 65 | 1016.5 |
| 20260506150801 | 79 | 308 | 2.0 | 5.0 | 0.00 | 0.00 | 0.00 | 67 | 1016.5 |
| 20260506150701 | 79 | 308 | 0.0 | 5.0 | 0.00 | 0.00 | 0.00 | 67 | 1016.4 |
| 20260506150601 | 79 | 62 | 0.0 | 5.0 | 0.00 | 0.00 | 0.00 | 67 | 1016.3 |
| 20260506150505 | 78 | 357 | 2.0 | 5.0 | 0.00 | 0.00 | 0.00 | 67 | 1016.3 |
| 20260506150401 | 78 | 327 | 0.0 | 5.0 | 0.00 | 0.00 | 0.00 | 67 | 1016.4 |
| 20260506150304 | 78 | 328 | 3.0 | 5.0 | 0.00 | 0.00 | 0.00 | 66 | 1016.3 |
| 20260506150201 | 78 | 315 | 4.0 | 4.0 | 0.00 | 0.00 | 0.00 | 66 | 1016.3 |
| 20260506150008 | 78 | 240 | 3.0 | 4.0 | 0.00 | 0.00 | 0.00 | 69 | 1016.3 |
| 20260506145901 | 77 | 323 | 3.0 | 4.0 | 0.00 | 0.00 | 0.00 | 70 | 1016.2 |
| 20260506145701 | 77 | 226 | 3.0 | 4.0 | 0.00 | 0.00 | 0.00 | 68 | 1016.2 |
| 20260506145506 | 77 | 338 | 3.0 | 4.0 | 0.00 | 0.00 | 0.00 | 68 | 1016.2 |
| 20260506145301 | 77 | 286 | 3.0 | 5.0 | 0.00 | 0.00 | 0.00 | 68 | 1016.2 |
| 20260506145201 | 77 | 323 | 0.0 | 5.0 | 0.00 | 0.00 | 0.00 | 68 | 1016.2 |
| 20260506145101 | 77 | 203 | 1.0 | 5.0 | 0.00 | 0.00 | 0.00 | 68 | 1016.2 |
| 20260506145007 | 77 | 32 | 0.0 | 5.0 | 0.00 | 0.00 | 0.00 | 68 | 1016.2 |
| 20260506144802 | 77 | 281 | 2.0 | 5.0 | 0.00 | 0.00 | 0.00 | 70 | 1016.3 |
| 20260506144702 | 77 | 291 | 2.0 | 5.0 | 0.00 | 0.00 | 0.00 | 70 | 1016.2 |
| 20260506144601 | 77 | 297 | 2.0 | 5.0 | 0.00 | 0.00 | 0.00 | 70 | 1016.2 |
| 20260506144505 | 76 | 328 | 0.0 | 5.0 | 0.00 | 0.00 | 0.00 | 70 | 1016.2 |
| 20260506144401 | 76 | 287 | 1.0 | 4.0 | 0.00 | 0.00 | 0.00 | 71 | 1016.2 |
| 20260506144201 | 76 | 20 | 0.0 | 5.0 | 0.00 | 0.00 | 0.00 | 71 | 1016.3 |
| 20260506144101 | 76 | 205 | 2.0 | 5.0 | 0.00 | 0.00 | 0.00 | 70 | 1016.2 |
| 20260506144006 | 76 | 338 | 0.0 | 5.0 | 0.00 | 0.00 | 0.00 | 72 | 1016.2 |
| 20260506143901 | 76 | 256 | 3.0 | 5.0 | 0.00 | 0.00 | 0.00 | 71 | 1016.2 |
| 20260506143801 | 76 | 71 | 0.0 | 5.0 | 0.00 | 0.00 | 0.00 | 72 | 1016.2 |
| 20260506143702 | 75 | 301 | 2.0 | 5.0 | 0.00 | 0.00 | 0.00 | 71 | 1016.3 |
| 20260506143601 | 75 | 300 | 2.0 | 5.0 | 0.00 | 0.00 | 0.00 | 72 | 1016.2 |
| 20260506143505 | 75 | 286 | 1.0 | 5.0 | 0.00 | 0.00 | 0.00 | 71 | 1016.2 |
| 20260506143401 | 76 | 301 | 3.0 | 5.0 | 0.00 | 0.00 | 0.00 | 73 | 1016.3 |
| 20260506143300 | 76 | 298 | 2.0 | 3.0 | 0.00 | 0.00 | 0.00 | 72 | 1016.3 |
| 20260506143201 | 75 | 233 | 0.0 | 3.0 | 0.00 | 0.00 | 0.00 | 73 | 1016.2 |
| 20260506143102 | 75 | 249 | 0.0 | 4.0 | 0.00 | 0.00 | 0.00 | 72 | 1016.2 |
| 20260506143006 | 75 | 326 | 0.0 | 4.0 | 0.00 | 0.00 | 0.00 | 73 | 1016.2 |
| 20260506142801 | 75 | 156 | 0.0 | 4.0 | 0.00 | 0.00 | 0.00 | 74 | 1016.1 |
| 20260506142701 | 75 | 308 | 2.0 | 4.0 | 0.00 | 0.00 | 0.00 | 74 | 1016.1 |
| 20260506142601 | 75 | 277 | 0.0 | 4.0 | 0.00 | 0.00 | 0.00 | 74 | 1016.2 |
| 20260506142505 | 75 | 277 | 3.0 | 4.0 | 0.00 | 0.00 | 0.00 | 74 | 1016.2 |
| 20260506142401 | 74 | 246 | 0.0 | 5.0 | 0.00 | 0.00 | 0.00 | 75 | 1016.2 |
| 20260506142201 | 74 | 294 | 4.0 | 5.0 | 0.00 | 0.00 | 0.00 | 74 | 1016.1 |
| 20260506142101 | 74 | 288 | 2.0 | 5.0 | 0.00 | 0.00 | 0.00 | 74 | 1016.2 |